2016 Cux-Wetter.de -Die Nutzung der Wetterdaten nur mit ausdrcklicher Genehmigung
Wetterdaten: Freitag, 27.04.2018
Datum Zeit Temp. A. Feuchte A. Luftdruck Regen Wind Richtung Richtung Sonnenschein Solar Taupunkt Windchill Windben
27.04.2018 00:00 9,8 C 80 % 1012,7 hPa 0,0 l/m 18,0 km/h (3 Bft) SW 233 0 min 0 W/m 6,5 C 3,7 C 25,7 km/h (4 Bft)
27.04.2018 00:03 9,8 C 80 % 1012,7 hPa 0,0 l/m 13,4 km/h (3 Bft) SW 225 0 min 0 W/m 6,5 C 5,6 C 20,9 km/h (4 Bft)
27.04.2018 00:06 9,8 C 80 % 1012,7 hPa 0,0 l/m 13,7 km/h (3 Bft) SW 217 0 min 0 W/m 6,5 C 5,5 C 22,5 km/h (4 Bft)
27.04.2018 00:09 9,8 C 80 % 1012,7 hPa 0,0 l/m 15,9 km/h (3 Bft) S-SW 208 0 min 0 W/m 6,5 C 4,5 C 24,1 km/h (4 Bft)
27.04.2018 00:12 9,7 C 80 % 1012,7 hPa 0,0 l/m 12,5 km/h (2 Bft) S-SW 207 0 min 0 W/m 6,4 C 5,9 C 20,9 km/h (4 Bft)
27.04.2018 00:15 9,7 C 80 % 1012,7 hPa 0,0 l/m 15,3 km/h (3 Bft) SW 224 0 min 0 W/m 6,4 C 4,6 C 27,4 km/h (5 Bft)
27.04.2018 00:18 9,7 C 80 % 1012,8 hPa 0,0 l/m 15,2 km/h (3 Bft) SW 229 0 min 0 W/m 6,4 C 4,7 C 27,4 km/h (5 Bft)
27.04.2018 00:21 9,7 C 80 % 1012,8 hPa 0,0 l/m 16,7 km/h (3 Bft) NW 306 0 min 0 W/m 6,4 C 4,1 C 29,0 km/h (5 Bft)
27.04.2018 00:24 9,7 C 80 % 1012,8 hPa 0,0 l/m 15,4 km/h (3 Bft) SW 220 0 min 0 W/m 6,4 C 4,6 C 27,4 km/h (5 Bft)
27.04.2018 00:27 9,7 C 80 % 1012,7 hPa 0,0 l/m 16,8 km/h (3 Bft) SW 219 0 min 0 W/m 6,4 C 4,0 C 25,7 km/h (4 Bft)
27.04.2018 00:30 9,7 C 80 % 1012,7 hPa 0,0 l/m 12,0 km/h (2 Bft) S-SW 200 0 min 0 W/m 6,4 C 6,2 C 19,3 km/h (3 Bft)
27.04.2018 00:33 9,7 C 80 % 1012,6 hPa 0,0 l/m 16,0 km/h (3 Bft) SW 229 0 min 0 W/m 6,4 C 4,4 C 27,4 km/h (5 Bft)
27.04.2018 00:36 9,7 C 80 % 1012,6 hPa 0,0 l/m 13,6 km/h (3 Bft) S-SW 205 0 min 0 W/m 6,4 C 5,4 C 19,3 km/h (3 Bft)
27.04.2018 00:39 9,7 C 80 % 1012,7 hPa 0,0 l/m 13,7 km/h (3 Bft) SW 231 0 min 0 W/m 6,4 C 5,3 C 25,7 km/h (4 Bft)
27.04.2018 00:42 9,7 C 80 % 1012,7 hPa 0,0 l/m 13,8 km/h (3 Bft) SW 232 0 min 0 W/m 6,4 C 5,3 C 20,9 km/h (4 Bft)
27.04.2018 00:45 9,6 C 80 % 1012,6 hPa 0,0 l/m 13,5 km/h (3 Bft) SW 236 0 min 0 W/m 6,3 C 5,3 C 22,5 km/h (4 Bft)
27.04.2018 00:48 9,6 C 81 % 1012,6 hPa 0,0 l/m 15,0 km/h (3 Bft) W-SW 257 0 min 0 W/m 6,5 C 4,6 C 22,5 km/h (4 Bft)
27.04.2018 00:51 9,6 C 81 % 1012,6 hPa 0,0 l/m 14,8 km/h (3 Bft) SW 216 0 min 0 W/m 6,5 C 4,7 C 25,7 km/h (4 Bft)
27.04.2018 00:54 9,5 C 81 % 1012,6 hPa 0,0 l/m 13,3 km/h (3 Bft) SW 215 0 min 0 W/m 6,4 C 5,3 C 19,3 km/h (3 Bft)
27.04.2018 00:57 9,4 C 81 % 1012,6 hPa 0,0 l/m 14,5 km/h (3 Bft) SW 234 0 min 0 W/m 6,3 C 4,6 C 25,7 km/h (4 Bft)
27.04.2018 01:00 9,4 C 81 % 1012,6 hPa 0,0 l/m 13,8 km/h (3 Bft) SW 234 0 min 0 W/m 6,3 C 4,9 C 20,9 km/h (4 Bft)
27.04.2018 01:03 9,4 C 82 % 1012,5 hPa 0,0 l/m 13,9 km/h (3 Bft) SW 225 0 min 0 W/m 6,5 C 4,9 C 22,5 km/h (4 Bft)
27.04.2018 01:06 9,4 C 82 % 1012,6 hPa 0,0 l/m 13,0 km/h (3 Bft) S-SW 206 0 min 0 W/m 6,5 C 5,3 C 19,3 km/h (3 Bft)
27.04.2018 01:09 9,4 C 82 % 1012,6 hPa 0,0 l/m 14,2 km/h (3 Bft) SW 228 0 min 0 W/m 6,5 C 4,8 C 29,0 km/h (5 Bft)
27.04.2018 01:12 9,4 C 82 % 1012,5 hPa 0,0 l/m 15,5 km/h (3 Bft) S-SW 208 0 min 0 W/m 6,5 C 4,2 C 27,4 km/h (5 Bft)
27.04.2018 01:15 9,4 C 82 % 1012,5 hPa 0,0 l/m 12,3 km/h (2 Bft) SW 224 0 min 0 W/m 6,5 C 5,7 C 17,7 km/h (3 Bft)
27.04.2018 01:18 9,4 C 82 % 1012,6 hPa 0,0 l/m 14,0 km/h (3 Bft) S-SW 206 0 min 0 W/m 6,5 C 4,9 C 25,7 km/h (4 Bft)
27.04.2018 01:21 9,4 C 82 % 1012,5 hPa 0,0 l/m 16,5 km/h (3 Bft) SW 219 0 min 0 W/m 6,5 C 3,8 C 27,4 km/h (5 Bft)
27.04.2018 01:24 9,3 C 82 % 1012,5 hPa 0,0 l/m 15,3 km/h (3 Bft) S-SW 202 0 min 0 W/m 6,4 C 4,2 C 24,1 km/h (4 Bft)
27.04.2018 01:27 9,3 C 82 % 1012,4 hPa 0,0 l/m 14,8 km/h (3 Bft) SW 230 0 min 0 W/m 6,4 C 4,4 C 22,5 km/h (4 Bft)
27.04.2018 01:30 9,3 C 82 % 1012,5 hPa 0,0 l/m 14,3 km/h (3 Bft) SW 236 0 min 0 W/m 6,4 C 4,6 C 19,3 km/h (3 Bft)
27.04.2018 01:33 9,3 C 82 % 1012,4 hPa 0,0 l/m 15,4 km/h (3 Bft) W-SW 252 0 min 0 W/m 6,4 C 4,1 C 24,1 km/h (4 Bft)
27.04.2018 01:36 9,3 C 82 % 1012,4 hPa 0,0 l/m 13,7 km/h (3 Bft) SW 234 0 min 0 W/m 6,4 C 4,9 C 20,9 km/h (4 Bft)
27.04.2018 01:39 9,3 C 82 % 1012,4 hPa 0,0 l/m 13,5 km/h (3 Bft) W-SW 242 0 min 0 W/m 6,4 C 5,0 C 27,4 km/h (5 Bft)
27.04.2018 01:42 9,3 C 82 % 1012,4 hPa 0,0 l/m 16,3 km/h (3 Bft) SW 218 0 min 0 W/m 6,4 C 3,7 C 24,1 km/h (4 Bft)
27.04.2018 01:45 9,3 C 83 % 1012,4 hPa 0,0 l/m 16,8 km/h (3 Bft) SW 227 0 min 0 W/m 6,6 C 3,5 C 27,4 km/h (5 Bft)
27.04.2018 01:48 9,3 C 82 % 1012,4 hPa 0,0 l/m 11,8 km/h (2 Bft) SW 235 0 min 0 W/m 6,4 C 5,8 C 22,5 km/h (4 Bft)
27.04.2018 01:51 9,2 C 82 % 1012,4 hPa 0,0 l/m 15,2 km/h (3 Bft) SW 231 0 min 0 W/m 6,3 C 4,1 C 20,9 km/h (4 Bft)
27.04.2018 01:54 9,2 C 82 % 1012,4 hPa 0,0 l/m 16,5 km/h (3 Bft) W-SW 247 0 min 0 W/m 6,3 C 3,5 C 25,7 km/h (4 Bft)
27.04.2018 01:57 9,2 C 82 % 1012,4 hPa 0,0 l/m 14,3 km/h (3 Bft) S-SW 207 0 min 0 W/m 6,3 C 4,5 C 22,5 km/h (4 Bft)
27.04.2018 02:00 9,2 C 82 % 1012,3 hPa 0,0 l/m 13,6 km/h (3 Bft) SW 227 0 min 0 W/m 6,3 C 4,8 C 22,5 km/h (4 Bft)
27.04.2018 02:03 9,2 C 82 % 1012,3 hPa 0,0 l/m 15,3 km/h (3 Bft) SW 224 0 min 0 W/m 6,3 C 4,0 C 29,0 km/h (5 Bft)
27.04.2018 02:06 9,2 C 82 % 1012,3 hPa 0,0 l/m 14,9 km/h (3 Bft) W-SW 252 0 min 0 W/m 6,3 C 4,2 C 24,1 km/h (4 Bft)
27.04.2018 02:09 9,2 C 81 % 1012,3 hPa 0,0 l/m 12,6 km/h (3 Bft) SW 225 0 min 0 W/m 6,1 C 5,3 C 19,3 km/h (3 Bft)
27.04.2018 02:12 9,2 C 81 % 1012,3 hPa 0,0 l/m 15,8 km/h (3 Bft) W-SW 248 0 min 0 W/m 6,1 C 3,8 C 27,4 km/h (5 Bft)
27.04.2018 02:15 9,2 C 81 % 1012,3 hPa 0,0 l/m 14,3 km/h (3 Bft) S-SW 205 0 min 0 W/m 6,1 C 4,5 C 22,5 km/h (4 Bft)
27.04.2018 02:18 9,2 C 81 % 1012,2 hPa 0,0 l/m 13,8 km/h (3 Bft) SW 232 0 min 0 W/m 6,1 C 4,7 C 20,9 km/h (4 Bft)
27.04.2018 02:21 9,2 C 80 % 1012,3 hPa 0,0 l/m 13,3 km/h (3 Bft) S-SW 202 0 min 0 W/m 5,9 C 4,9 C 22,5 km/h (4 Bft)
27.04.2018 02:24 9,2 C 80 % 1012,2 hPa 0,0 l/m 13,0 km/h (3 Bft) W-SW 246 0 min 0 W/m 5,9 C 5,1 C 20,9 km/h (4 Bft)
27.04.2018 02:27 9,2 C 80 % 1012,3 hPa 0,0 l/m 15,3 km/h (3 Bft) SW 229 0 min 0 W/m 5,9 C 4,0 C 22,5 km/h (4 Bft)
27.04.2018 02:30 9,1 C 81 % 1012,3 hPa 0,0 l/m 11,6 km/h (2 Bft) W-SW 241 0 min 0 W/m 6,0 C 5,7 C 17,7 km/h (3 Bft)
27.04.2018 02:33 9,1 C 81 % 1012,2 hPa 0,0 l/m 13,5 km/h (3 Bft) SW 225 0 min 0 W/m 6,0 C 4,7 C 22,5 km/h (4 Bft)
27.04.2018 02:36 9,1 C 81 % 1012,2 hPa 0,0 l/m 11,6 km/h (2 Bft) S-SW 205 0 min 0 W/m 6,0 C 5,7 C 17,7 km/h (3 Bft)
27.04.2018 02:39 9,1 C 81 % 1012,2 hPa 0,0 l/m 12,0 km/h (2 Bft) SW 235 0 min 0 W/m 6,0 C 5,5 C 22,5 km/h (4 Bft)
27.04.2018 02:42 9,0 C 81 % 1012,1 hPa 0,0 l/m 11,5 km/h (2 Bft) S-SW 213 0 min 0 W/m 5,9 C 5,6 C 17,7 km/h (3 Bft)
27.04.2018 02:45 8,9 C 81 % 1012,2 hPa 0,0 l/m 11,3 km/h (2 Bft) S-SW 207 0 min 0 W/m 5,8 C 5,6 C 17,7 km/h (3 Bft)
27.04.2018 02:48 8,9 C 81 % 1012,2 hPa 0,0 l/m 12,2 km/h (2 Bft) S-SW 209 0 min 0 W/m 5,8 C 5,1 C 17,7 km/h (3 Bft)
27.04.2018 02:51 8,9 C 80 % 1012,2 hPa 0,0 l/m 13,5 km/h (3 Bft) SW 235 0 min 0 W/m 5,6 C 4,5 C 20,9 km/h (4 Bft)
27.04.2018 02:54 8,9 C 80 % 1012,1 hPa 0,0 l/m 12,0 km/h (2 Bft) SW 218 0 min 0 W/m 5,6 C 5,2 C 16,1 km/h (3 Bft)
27.04.2018 02:57 8,8 C 81 % 1012,2 hPa 0,0 l/m 13,2 km/h (3 Bft) S-SW 195 0 min 0 W/m 5,7 C 4,5 C 19,3 km/h (3 Bft)
27.04.2018 03:00 8,8 C 81 % 1012,2 hPa 0,0 l/m 12,4 km/h (2 Bft) SW 233 0 min 0 W/m 5,7 C 4,9 C 20,9 km/h (4 Bft)
27.04.2018 03:03 8,8 C 81 % 1012,2 hPa 0,0 l/m 11,5 km/h (2 Bft) W-SW 247 0 min 0 W/m 5,7 C 5,4 C 17,7 km/h (3 Bft)
27.04.2018 03:06 8,8 C 81 % 1012,2 hPa 0,0 l/m 12,1 km/h (2 Bft) SW 229 0 min 0 W/m 5,7 C 5,1 C 20,9 km/h (4 Bft)
27.04.2018 03:09 8,7 C 82 % 1012,2 hPa 0,0 l/m 11,9 km/h (2 Bft) SW 218 0 min 0 W/m 5,8 C 5,1 C 20,9 km/h (4 Bft)
27.04.2018 03:12 8,7 C 82 % 1012,2 hPa 0,0 l/m 12,2 km/h (2 Bft) SW 223 0 min 0 W/m 5,8 C 4,9 C 19,3 km/h (3 Bft)
27.04.2018 03:15 8,7 C 82 % 1012,1 hPa 0,0 l/m 11,6 km/h (2 Bft) SW 232 0 min 0 W/m 5,8 C 5,2 C 20,9 km/h (4 Bft)
27.04.2018 03:18 8,7 C 82 % 1012,1 hPa 0,0 l/m 10,9 km/h (2 Bft) SW 232 0 min 0 W/m 5,8 C 5,6 C 19,3 km/h (3 Bft)
27.04.2018 03:21 8,6 C 83 % 1012,1 hPa 0,0 l/m 10,4 km/h (2 Bft) SW 233 0 min 0 W/m 5,9 C 5,8 C 14,5 km/h (3 Bft)
27.04.2018 03:24 8,6 C 83 % 1012,1 hPa 0,0 l/m 9,6 km/h (2 Bft) W-SW 237 0 min 0 W/m 5,9 C 6,3 C 16,1 km/h (3 Bft)
27.04.2018 03:27 8,6 C 83 % 1012,1 hPa 0,0 l/m 9,2 km/h (2 Bft) SW 219 0 min 0 W/m 5,9 C 6,6 C 17,7 km/h (3 Bft)
27.04.2018 03:30 8,6 C 83 % 1012,1 hPa 0,0 l/m 9,0 km/h (2 Bft) S-SW 203 0 min 0 W/m 5,9 C 6,7 C 12,9 km/h (3 Bft)
27.04.2018 03:33 8,6 C 83 % 1012,1 hPa 0,0 l/m 11,0 km/h (2 Bft) SW 228 0 min 0 W/m 5,9 C 5,5 C 17,7 km/h (3 Bft)
27.04.2018 03:36 8,6 C 83 % 1012,1 hPa 0,0 l/m 7,9 km/h (2 Bft) S-SW 197 0 min 0 W/m 5,9 C 7,5 C 12,9 km/h (3 Bft)
27.04.2018 03:39 8,6 C 83 % 1012,2 hPa 0,0 l/m 7,4 km/h (2 Bft) S-SW 198 0 min 0 W/m 5,9 C 7,8 C 11,3 km/h (2 Bft)
27.04.2018 03:42 8,5 C 84 % 1012,1 hPa 0,0 l/m 7,4 km/h (2 Bft) SW 229 0 min 0 W/m 6,0 C 7,7 C 11,3 km/h (2 Bft)
27.04.2018 03:45 8,5 C 84 % 1012,1 hPa 0,0 l/m 7,7 km/h (2 Bft) S-SW 195 0 min 0 W/m 6,0 C 7,5 C 12,9 km/h (3 Bft)
27.04.2018 03:48 8,4 C 84 % 1012,2 hPa 0,0 l/m 5,5 km/h (2 Bft) S-SW 200 0 min 0 W/m 5,9 C 8,4 C 9,7 km/h (2 Bft)
27.04.2018 03:51 8,3 C 85 % 1012,2 hPa 0,0 l/m 6,4 km/h (2 Bft) S-SW 204 0 min 0 W/m 5,9 C 8,3 C 12,9 km/h (3 Bft)
27.04.2018 03:54 8,2 C 85 % 1012,2 hPa 0,0 l/m 6,4 km/h (2 Bft) S-SW 193 0 min 0 W/m 5,8 C 8,2 C 14,5 km/h (3 Bft)
27.04.2018 03:57 8,2 C 86 % 1012,2 hPa 0,0 l/m 7,3 km/h (2 Bft) S 186 0 min 0 W/m 6,0 C 7,5 C 14,5 km/h (3 Bft)
27.04.2018 04:00 8,1 C 86 % 1012,1 hPa 0,0 l/m 6,6 km/h (2 Bft) SW 230 0 min 0 W/m 5,9 C 8,0 C 12,9 km/h (3 Bft)
27.04.2018 04:03 8,1 C 86 % 1012,1 hPa 0,0 l/m 6,9 km/h (2 Bft) S-SW 196 0 min 0 W/m 5,9 C 7,7 C 11,3 km/h (2 Bft)
27.04.2018 04:06 7,9 C 87 % 1012,0 hPa 0,0 l/m 6,8 km/h (2 Bft) S 186 0 min 0 W/m 5,9 C 7,6 C 11,3 km/h (2 Bft)
27.04.2018 04:09 7,9 C 87 % 1012,1 hPa 0,0 l/m 6,3 km/h (2 Bft) W-SW 238 0 min 0 W/m 5,9 C 7,9 C 11,3 km/h (2 Bft)
27.04.2018 04:12 7,8 C 87 % 1012,1 hPa 0,0 l/m 5,8 km/h (2 Bft) S 186 0 min 0 W/m 5,8 C 7,8 C 11,3 km/h (2 Bft)
27.04.2018 04:15 7,7 C 88 % 1012,0 hPa 0,0 l/m 5,2 km/h (1 Bft) S 184 0 min 0 W/m 5,8 C 7,7 C 8,0 km/h (2 Bft)
27.04.2018 04:18 7,7 C 88 % 1012,1 hPa 0,0 l/m 5,2 km/h (1 Bft) S-SW 194 0 min 0 W/m 5,8 C 7,7 C 11,3 km/h (2 Bft)
27.04.2018 04:21 7,6 C 88 % 1012,1 hPa 0,0 l/m 5,5 km/h (2 Bft) S-SW 209 0 min 0 W/m 5,7 C 7,6 C 8,0 km/h (2 Bft)
27.04.2018 04:24 7,5 C 88 % 1012,1 hPa 0,0 l/m 5,6 km/h (2 Bft) S-SW 212 0 min 0 W/m 5,6 C 7,5 C 8,0 km/h (2 Bft)
27.04.2018 04:27 7,4 C 88 % 1012,1 hPa 0,0 l/m 5,9 km/h (2 Bft) S-SW 205 0 min 0 W/m 5,5 C 7,4 C 9,7 km/h (2 Bft)
27.04.2018 04:30 7,4 C 89 % 1012,1 hPa 0,0 l/m 7,7 km/h (2 Bft) S-SW 206 0 min 0 W/m 5,7 C 6,4 C 11,3 km/h (2 Bft)
27.04.2018 04:33 7,3 C 89 % 1012,1 hPa 0,0 l/m 7,1 km/h (2 Bft) SW 222 0 min 0 W/m 5,6 C 6,7 C 11,3 km/h (2 Bft)
27.04.2018 04:36 7,3 C 89 % 1012,1 hPa 0,0 l/m 7,5 km/h (2 Bft) S-SW 202 0 min 0 W/m 5,6 C 6,4 C 9,7 km/h (2 Bft)
27.04.2018 04:39 7,3 C 89 % 1012,0 hPa 0,0 l/m 7,0 km/h (2 Bft) SW 215 0 min 0 W/m 5,6 C 6,8 C 11,3 km/h (2 Bft)
27.04.2018 04:42 7,2 C 89 % 1011,9 hPa 0,0 l/m 7,8 km/h (2 Bft) SW 230 0 min 0 W/m 5,5 C 6,1 C 12,9 km/h (3 Bft)
27.04.2018 04:45 7,2 C 90 % 1012,0 hPa 0,0 l/m 9,3 km/h (2 Bft) SW 224 0 min 0 W/m 5,7 C 5,0 C 14,5 km/h (3 Bft)
27.04.2018 04:48 7,2 C 90 % 1012,0 hPa 0,0 l/m 7,8 km/h (2 Bft) S-SW 205 0 min 0 W/m 5,7 C 6,1 C 11,3 km/h (2 Bft)
27.04.2018 04:51 7,2 C 90 % 1011,9 hPa 0,0 l/m 7,9 km/h (2 Bft) S-SW 207 0 min 0 W/m 5,7 C 6,0 C 12,9 km/h (3 Bft)
27.04.2018 04:54 7,2 C 90 % 1011,9 hPa 0,0 l/m 7,5 km/h (2 Bft) SW 223 0 min 0 W/m 5,7 C 6,3 C 9,7 km/h (2 Bft)
27.04.2018 04:57 7,1 C 90 % 1011,9 hPa 0,0 l/m 7,3 km/h (2 Bft) S-SW 207 0 min 0 W/m 5,6 C 6,4 C 9,7 km/h (2 Bft)
27.04.2018 05:00 7,1 C 90 % 1011,8 hPa 0,0 l/m 7,3 km/h (2 Bft) S-SW 208 0 min 0 W/m 5,6 C 6,4 C 11,3 km/h (2 Bft)
27.04.2018 05:03 7,0 C 90 % 1011,8 hPa 0,0 l/m 6,7 km/h (2 Bft) S-SW 213 0 min 0 W/m 5,5 C 6,8 C 11,3 km/h (2 Bft)
27.04.2018 05:06 6,9 C 90 % 1011,8 hPa 0,0 l/m 6,8 km/h (2 Bft) SW 218 0 min 0 W/m 5,4 C 6,6 C 11,3 km/h (2 Bft)
27.04.2018 05:09 6,9 C 90 % 1011,8 hPa 0,0 l/m 7,0 km/h (2 Bft) S 187 0 min 0 W/m 5,4 C 6,4 C 11,3 km/h (2 Bft)
27.04.2018 05:12 6,8 C 90 % 1011,7 hPa 0,0 l/m 5,8 km/h (2 Bft) SW 218 0 min 0 W/m 5,3 C 6,8 C 8,0 km/h (2 Bft)
27.04.2018 05:15 6,8 C 90 % 1011,8 hPa 0,0 l/m 7,9 km/h (2 Bft) S-SW 207 0 min 0 W/m 5,3 C 5,6 C 11,3 km/h (2 Bft)
27.04.2018 05:18 6,8 C 90 % 1011,8 hPa 0,0 l/m 6,8 km/h (2 Bft) S-SW 194 0 min 0 W/m 5,3 C 6,5 C 9,7 km/h (2 Bft)
27.04.2018 05:21 6,7 C 90 % 1011,8 hPa 0,0 l/m 6,8 km/h (2 Bft) S-SW 197 0 min 0 W/m 5,2 C 6,4 C 11,3 km/h (2 Bft)
27.04.2018 05:24 6,7 C 90 % 1011,8 hPa 0,0 l/m 6,7 km/h (2 Bft) S-SW 211 0 min 0 W/m 5,2 C 6,5 C 11,3 km/h (2 Bft)
27.04.2018 05:27 6,7 C 91 % 1011,7 hPa 0,0 l/m 7,1 km/h (2 Bft) SW 227 0 min 0 W/m 5,3 C 6,1 C 14,5 km/h (3 Bft)
27.04.2018 05:30 6,7 C 91 % 1011,8 hPa 0,0 l/m 7,1 km/h (2 Bft) SW 222 0 min 0 W/m 5,3 C 6,1 C 11,3 km/h (2 Bft)
27.04.2018 05:33 6,7 C 91 % 1011,8 hPa 0,0 l/m 6,4 km/h (2 Bft) SW 217 0 min 0 W/m 5,3 C 6,7 C 11,3 km/h (2 Bft)
27.04.2018 05:36 6,7 C 91 % 1011,7 hPa 0,0 l/m 7,0 km/h (2 Bft) SW 226 0 min 0 W/m 5,3 C 6,2 C 11,3 km/h (2 Bft)
27.04.2018 05:39 6,7 C 91 % 1011,7 hPa 0,0 l/m 8,1 km/h (2 Bft) S-SW 207 0 min 0 W/m 5,3 C 5,3 C 12,9 km/h (3 Bft)
27.04.2018 05:42 6,7 C 91 % 1011,7 hPa 0,0 l/m 7,0 km/h (2 Bft) S-SW 207 0 min 0 W/m 5,3 C 6,2 C 9,7 km/h (2 Bft)
27.04.2018 05:45 6,7 C 91 % 1011,8 hPa 0,0 l/m 7,0 km/h (2 Bft) S-SW 198 0 min 0 W/m 5,3 C 6,2 C 11,3 km/h (2 Bft)
27.04.2018 05:48 6,6 C 91 % 1011,8 hPa 0,0 l/m 6,4 km/h (2 Bft) S-SW 206 0 min 0 W/m 5,2 C 6,6 C 9,7 km/h (2 Bft)
27.04.2018 05:51 6,6 C 91 % 1011,7 hPa 0,0 l/m 7,7 km/h (2 Bft) S-SW 209 0 min 0 W/m 5,2 C 5,5 C 12,9 km/h (3 Bft)
27.04.2018 05:54 6,6 C 91 % 1011,7 hPa 0,0 l/m 7,0 km/h (2 Bft) S-SW 211 0 min 0 W/m 5,2 C 6,1 C 11,3 km/h (2 Bft)
27.04.2018 05:57 6,6 C 91 % 1011,8 hPa 0,0 l/m 5,9 km/h (2 Bft) S-SW 199 0 min 0 W/m 5,2 C 6,6 C 9,7 km/h (2 Bft)
27.04.2018 06:00 6,5 C 91 % 1011,8 hPa 0,0 l/m 7,4 km/h (2 Bft) S-SW 205 0 min 0 W/m 5,1 C 5,7 C 12,9 km/h (3 Bft)
27.04.2018 06:03 6,5 C 91 % 1011,9 hPa 0,0 l/m 7,1 km/h (2 Bft) S-SW 202 0 min 5 W/m 5,1 C 5,9 C 12,9 km/h (3 Bft)
27.04.2018 06:06 6,5 C 91 % 1011,8 hPa 0,0 l/m 6,7 km/h (2 Bft) S-SW 206 0 min 5 W/m 5,1 C 6,3 C 11,3 km/h (2 Bft)
27.04.2018 06:09 6,4 C 91 % 1011,8 hPa 0,0 l/m 6,5 km/h (2 Bft) S 190 0 min 5 W/m 5,0 C 6,3 C 9,7 km/h (2 Bft)
27.04.2018 06:12 6,4 C 91 % 1011,8 hPa 0,0 l/m 7,1 km/h (2 Bft) SW 220 0 min 7 W/m 5,0 C 5,8 C 11,3 km/h (2 Bft)
27.04.2018 06:15 6,4 C 91 % 1011,9 hPa 0,0 l/m 7,0 km/h (2 Bft) SW 216 0 min 9 W/m 5,0 C 5,9 C 11,3 km/h (2 Bft)
27.04.2018 06:18 6,4 C 91 % 1011,9 hPa 0,0 l/m 6,1 km/h (2 Bft) SW 224 0 min 11 W/m 5,0 C 6,4 C 11,3 km/h (2 Bft)
27.04.2018 06:21 6,4 C 91 % 1011,9 hPa 0,0 l/m 6,8 km/h (2 Bft) S-SW 207 0 min 12 W/m 5,0 C 6,1 C 9,7 km/h (2 Bft)
27.04.2018 06:24 6,4 C 91 % 1011,8 hPa 0,0 l/m 5,2 km/h (1 Bft) SW 225 0 min 14 W/m 5,0 C 6,4 C 9,7 km/h (2 Bft)
27.04.2018 06:27 6,4 C 91 % 1011,9 hPa 0,0 l/m 6,2 km/h (2 Bft) S-SW 213 0 min 14 W/m 5,0 C 6,4 C 9,7 km/h (2 Bft)
27.04.2018 06:30 6,4 C 91 % 1011,9 hPa 0,0 l/m 6,3 km/h (2 Bft) SW 224 0 min 16 W/m 5,0 C 6,4 C 12,9 km/h (3 Bft)
27.04.2018 06:33 6,4 C 91 % 1011,9 hPa 0,0 l/m 5,8 km/h (2 Bft) S-SW 207 0 min 16 W/m 5,0 C 6,4 C 9,7 km/h (2 Bft)
27.04.2018 06:36 6,4 C 92 % 1011,9 hPa 0,0 l/m 7,8 km/h (2 Bft) SW 217 0 min 18 W/m 5,2 C 5,2 C 12,9 km/h (3 Bft)
27.04.2018 06:39 6,4 C 92 % 1012,0 hPa 0,0 l/m 7,0 km/h (2 Bft) S 175 0 min 19 W/m 5,2 C 5,9 C 12,9 km/h (3 Bft)
27.04.2018 06:42 6,4 C 92 % 1011,9 hPa 0,0 l/m 6,7 km/h (2 Bft) SW 236 0 min 21 W/m 5,2 C 6,2 C 11,3 km/h (2 Bft)
27.04.2018 06:45 6,4 C 92 % 1011,9 hPa 0,0 l/m 5,8 km/h (2 Bft) W-SW 246 0 min 21 W/m 5,2 C 6,4 C 11,3 km/h (2 Bft)
27.04.2018 06:48 6,5 C 92 % 1011,9 hPa 0,0 l/m 7,2 km/h (2 Bft) SW 221 0 min 25 W/m 5,3 C 5,8 C 12,9 km/h (3 Bft)
27.04.2018 06:51 6,6 C 92 % 1011,9 hPa 0,0 l/m 6,2 km/h (2 Bft) S-SW 194 0 min 26 W/m 5,4 C 6,6 C 9,7 km/h (2 Bft)
27.04.2018 06:54 6,6 C 92 % 1011,9 hPa 0,0 l/m 6,2 km/h (2 Bft) W-SW 243 0 min 28 W/m 5,4 C 6,6 C 12,9 km/h (3 Bft)
27.04.2018 06:57 6,6 C 92 % 1011,9 hPa 0,0 l/m 7,7 km/h (2 Bft) SW 216 0 min 32 W/m 5,4 C 5,5 C 11,3 km/h (2 Bft)
27.04.2018 07:00 6,7 C 92 % 1011,9 hPa 0,0 l/m 6,1 km/h (2 Bft) S 180 0 min 32 W/m 5,5 C 6,7 C 9,7 km/h (2 Bft)
27.04.2018 07:03 6,7 C 92 % 1011,9 hPa 0,0 l/m 5,5 km/h (2 Bft) S 182 0 min 33 W/m 5,5 C 6,7 C 11,3 km/h (2 Bft)
27.04.2018 07:06 6,7 C 92 % 1012,0 hPa 0,0 l/m 7,9 km/h (2 Bft) S-SW 194 0 min 35 W/m 5,5 C 5,5 C 14,5 km/h (3 Bft)
27.04.2018 07:09 6,7 C 92 % 1011,9 hPa 0,0 l/m 7,4 km/h (2 Bft) S-SW 207 0 min 35 W/m 5,5 C 5,9 C 14,5 km/h (3 Bft)
27.04.2018 07:12 6,8 C 92 % 1012,0 hPa 0,0 l/m 9,4 km/h (2 Bft) SW 233 0 min 37 W/m 5,6 C 4,5 C 14,5 km/h (3 Bft)
27.04.2018 07:15 6,9 C 92 % 1012,0 hPa 0,0 l/m 8,4 km/h (2 Bft) SW 215 0 min 39 W/m 5,7 C 5,3 C 11,3 km/h (2 Bft)
27.04.2018 07:18 6,9 C 92 % 1012,0 hPa 0,0 l/m 9,9 km/h (2 Bft) S-SW 203 0 min 39 W/m 5,7 C 4,2 C 16,1 km/h (3 Bft)
27.04.2018 07:21 6,9 C 92 % 1012,0 hPa 0,0 l/m 10,6 km/h (2 Bft) S 184 0 min 40 W/m 5,7 C 3,8 C 14,5 km/h (3 Bft)
27.04.2018 07:24 7,0 C 92 % 1012,1 hPa 0,0 l/m 9,8 km/h (2 Bft) S 189 0 min 44 W/m 5,8 C 4,4 C 14,5 km/h (3 Bft)
27.04.2018 07:27 7,1 C 92 % 1012,1 hPa 0,0 l/m 11,7 km/h (2 Bft) S 178 0 min 51 W/m 5,9 C 3,3 C 20,9 km/h (4 Bft)
27.04.2018 07:30 7,1 C 92 % 1012,1 hPa 0,0 l/m 10,7 km/h (2 Bft) S-SW 198 0 min 51 W/m 5,9 C 3,9 C 17,7 km/h (3 Bft)
27.04.2018 07:33 7,2 C 92 % 1012,0 hPa 0,0 l/m 10,9 km/h (2 Bft) W-SW 240 0 min 47 W/m 6,0 C 3,9 C 17,7 km/h (3 Bft)
27.04.2018 07:36 7,2 C 92 % 1012,1 hPa 0,0 l/m 11,5 km/h (2 Bft) SW 227 0 min 51 W/m 6,0 C 3,6 C 19,3 km/h (3 Bft)
27.04.2018 07:39 7,3 C 92 % 1012,1 hPa 0,0 l/m 11,8 km/h (2 Bft) SW 221 0 min 54 W/m 6,1 C 3,5 C 19,3 km/h (3 Bft)
27.04.2018 07:42 7,4 C 92 % 1012,1 hPa 0,0 l/m 12,0 km/h (2 Bft) S-SW 205 0 min 58 W/m 6,2 C 3,5 C 17,7 km/h (3 Bft)
27.04.2018 07:45 7,4 C 91 % 1012,1 hPa 0,0 l/m 10,8 km/h (2 Bft) SW 232 0 min 69 W/m 6,0 C 4,2 C 19,3 km/h (3 Bft)
27.04.2018 07:48 7,5 C 92 % 1012,1 hPa 0,0 l/m 10,0 km/h (2 Bft) SW 230 0 min 79 W/m 6,3 C 4,8 C 16,1 km/h (3 Bft)
27.04.2018 07:51 7,6 C 91 % 1012,2 hPa 0,0 l/m 12,1 km/h (2 Bft) SW 223 0 min 91 W/m 6,2 C 3,7 C 19,3 km/h (3 Bft)
27.04.2018 07:54 7,7 C 91 % 1012,1 hPa 0,0 l/m 10,5 km/h (2 Bft) S-SW 196 0 min 74 W/m 6,3 C 4,7 C 16,1 km/h (3 Bft)
27.04.2018 07:57 7,8 C 91 % 1012,2 hPa 0,0 l/m 9,7 km/h (2 Bft) S 191 0 min 62 W/m 6,4 C 5,4 C 14,5 km/h (3 Bft)
27.04.2018 08:00 7,8 C 91 % 1012,1 hPa 0,0 l/m 10,6 km/h (2 Bft) S-SW 205 0 min 56 W/m 6,4 C 4,8 C 16,1 km/h (3 Bft)
27.04.2018 08:03 7,8 C 91 % 1012,1 hPa 0,0 l/m 10,4 km/h (2 Bft) S-SW 202 0 min 54 W/m 6,4 C 4,9 C 16,1 km/h (3 Bft)
27.04.2018 08:06 7,9 C 91 % 1012,1 hPa 0,0 l/m 11,0 km/h (2 Bft) W-SW 248 0 min 53 W/m 6,5 C 4,7 C 17,7 km/h (3 Bft)
27.04.2018 08:09 7,9 C 91 % 1012,1 hPa 0,0 l/m 10,1 km/h (2 Bft) S-SW 194 0 min 53 W/m 6,5 C 5,2 C 16,1 km/h (3 Bft)
27.04.2018 08:12 8,0 C 91 % 1012,0 hPa 0,0 l/m 11,6 km/h (2 Bft) SW 215 0 min 53 W/m 6,6 C 4,4 C 19,3 km/h (3 Bft)
27.04.2018 08:15 8,0 C 91 % 1012,0 hPa 0,0 l/m 9,4 km/h (2 Bft) SW 225 0 min 49 W/m 6,6 C 5,8 C 17,7 km/h (3 Bft)
27.04.2018 08:18 8,1 C 91 % 1012,0 hPa 0,0 l/m 10,4 km/h (2 Bft) W-SW 242 0 min 51 W/m 6,7 C 5,2 C 20,9 km/h (4 Bft)
27.04.2018 08:21 8,2 C 91 % 1012,0 hPa 0,0 l/m 12,0 km/h (2 Bft) S-SW 207 0 min 63 W/m 6,8 C 4,4 C 17,7 km/h (3 Bft)
27.04.2018 08:24 8,2 C 91 % 1012,0 hPa 0,0 l/m 11,6 km/h (2 Bft) SW 221 0 min 65 W/m 6,8 C 4,7 C 17,7 km/h (3 Bft)
27.04.2018 08:27 8,3 C 91 % 1012,0 hPa 0,0 l/m 12,6 km/h (3 Bft) SW 229 0 min 76 W/m 6,9 C 4,2 C 22,5 km/h (4 Bft)
27.04.2018 08:30 8,4 C 91 % 1011,9 hPa 0,0 l/m 12,2 km/h (2 Bft) S-SW 209 0 min 62 W/m 7,0 C 4,6 C 19,3 km/h (3 Bft)
27.04.2018 08:33 8,5 C 91 % 1011,9 hPa 0,0 l/m 11,2 km/h (2 Bft) SW 227 0 min 56 W/m 7,1 C 5,2 C 17,7 km/h (3 Bft)
27.04.2018 08:36 8,6 C 91 % 1011,9 hPa 0,0 l/m 10,9 km/h (2 Bft) W-SW 237 0 min 63 W/m 7,2 C 5,5 C 19,3 km/h (3 Bft)
27.04.2018 08:39 8,7 C 91 % 1011,9 hPa 0,0 l/m 13,8 km/h (3 Bft) SW 228 0 min 76 W/m 7,3 C 4,1 C 20,9 km/h (4 Bft)
27.04.2018 08:42 8,8 C 91 % 1011,9 hPa 0,0 l/m 9,5 km/h (2 Bft) SW 232 0 min 76 W/m 7,4 C 6,6 C 16,1 km/h (3 Bft)
27.04.2018 08:45 8,9 C 91 % 1011,9 hPa 0,0 l/m 9,7 km/h (2 Bft) S-SW 200 0 min 72 W/m 7,5 C 6,6 C 16,1 km/h (3 Bft)
27.04.2018 08:48 8,9 C 90 % 1011,9 hPa 0,0 l/m 11,2 km/h (2 Bft) SW 229 0 min 77 W/m 7,4 C 5,7 C 16,1 km/h (3 Bft)
27.04.2018 08:51 9,0 C 90 % 1011,9 hPa 0,0 l/m 14,2 km/h (3 Bft) S-SW 192 0 min 84 W/m 7,4 C 4,3 C 20,9 km/h (4 Bft)
27.04.2018 08:54 9,0 C 90 % 1011,9 hPa 0,0 l/m 13,7 km/h (3 Bft) SW 222 0 min 91 W/m 7,4 C 4,5 C 22,5 km/h (4 Bft)
27.04.2018 08:57 9,0 C 90 % 1012,0 hPa 0,0 l/m 12,8 km/h (3 Bft) S-SW 213 0 min 172 W/m 7,4 C 5,0 C 19,3 km/h (3 Bft)
27.04.2018 09:00 9,1 C 90 % 1012,0 hPa 0,0 l/m 13,2 km/h (3 Bft) S-SW 205 0 min 199 W/m 7,5 C 4,9 C 20,9 km/h (4 Bft)
27.04.2018 09:03 9,3 C 90 % 1011,9 hPa 0,0 l/m 11,6 km/h (2 Bft) S-SO 167 3 min 241 W/m 7,7 C 5,9 C 19,3 km/h (3 Bft)
27.04.2018 09:06 9,6 C 90 % 1012,0 hPa 0,0 l/m 12,7 km/h (3 Bft) W-SW 240 0 min 209 W/m 8,0 C 5,7 C 24,1 km/h (4 Bft)
27.04.2018 09:09 9,7 C 89 % 1011,9 hPa 0,0 l/m 10,2 km/h (2 Bft) S-SW 206 0 min 141 W/m 8,0 C 7,1 C 19,3 km/h (3 Bft)
27.04.2018 09:12 9,7 C 89 % 1012,0 hPa 0,0 l/m 10,0 km/h (2 Bft) SW 218 0 min 91 W/m 8,0 C 7,3 C 16,1 km/h (3 Bft)
27.04.2018 09:15 9,7 C 88 % 1012,0 hPa 0,0 l/m 10,8 km/h (2 Bft) S 191 3 min 265 W/m 7,8 C 6,8 C 19,3 km/h (3 Bft)
27.04.2018 09:18 9,6 C 88 % 1012,0 hPa 0,0 l/m 12,4 km/h (2 Bft) S-SW 202 0 min 250 W/m 7,7 C 5,9 C 19,3 km/h (3 Bft)
27.04.2018 09:21 9,7 C 88 % 1012,1 hPa 0,0 l/m 11,6 km/h (2 Bft) S-SW 206 0 min 174 W/m 7,8 C 6,4 C 20,9 km/h (4 Bft)
27.04.2018 09:24 9,8 C 88 % 1012,0 hPa 0,0 l/m 11,3 km/h (2 Bft) SW 235 3 min 357 W/m 7,9 C 6,6 C 19,3 km/h (3 Bft)
27.04.2018 09:27 9,9 C 88 % 1012,0 hPa 0,0 l/m 13,2 km/h (3 Bft) S-SW 205 0 min 244 W/m 8,0 C 5,8 C 19,3 km/h (3 Bft)
27.04.2018 09:30 9,9 C 87 % 1012,0 hPa 0,0 l/m 9,4 km/h (2 Bft) SW 221 3 min 288 W/m 7,8 C 7,8 C 16,1 km/h (3 Bft)
27.04.2018 09:33 10,1 C 88 % 1012,0 hPa 0,0 l/m 11,0 km/h (2 Bft) SW 219 3 min 371 W/m 8,2 C 7,1 C 17,7 km/h (3 Bft)
27.04.2018 09:36 10,4 C 87 % 1012,1 hPa 0,0 l/m 10,1 km/h (2 Bft) S-SW 211 3 min 366 W/m 8,3 C 8,0 C 17,7 km/h (3 Bft)
27.04.2018 09:39 10,3 C 86 % 1012,0 hPa 0,0 l/m 13,7 km/h (3 Bft) SW 224 3 min 362 W/m 8,1 C 6,1 C 19,3 km/h (3 Bft)
27.04.2018 09:42 10,4 C 86 % 1012,0 hPa 0,0 l/m 10,9 km/h (2 Bft) SW 219 3 min 371 W/m 8,2 C 7,5 C 16,1 km/h (3 Bft)
27.04.2018 09:45 10,5 C 85 % 1012,0 hPa 0,0 l/m 12,8 km/h (3 Bft) SW 217 3 min 390 W/m 8,1 C 6,7 C 17,7 km/h (3 Bft)
27.04.2018 09:48 10,6 C 85 % 1012,0 hPa 0,0 l/m 12,5 km/h (2 Bft) S-SW 195 3 min 424 W/m 8,2 C 7,0 C 19,3 km/h (3 Bft)
27.04.2018 09:51 10,7 C 85 % 1012,0 hPa 0,0 l/m 12,7 km/h (3 Bft) S 170 3 min 443 W/m 8,3 C 7,0 C 19,3 km/h (3 Bft)
27.04.2018 09:54 10,8 C 86 % 1011,9 hPa 0,0 l/m 11,0 km/h (2 Bft) S 170 3 min 429 W/m 8,6 C 7,9 C 19,3 km/h (3 Bft)
27.04.2018 09:57 11,1 C 86 % 1012,0 hPa 0,0 l/m 10,6 km/h (2 Bft) SW 224 3 min 455 W/m 8,8 C 8,5 C 17,7 km/h (3 Bft)
27.04.2018 10:00 11,2 C 85 % 1012,0 hPa 0,0 l/m 11,1 km/h (2 Bft) SW 219 3 min 480 W/m 8,8 C 8,3 C 17,7 km/h (3 Bft)
27.04.2018 10:03 11,2 C 84 % 1011,9 hPa 0,0 l/m 11,2 km/h (2 Bft) SW 216 3 min 357 W/m 8,6 C 8,3 C 17,7 km/h (3 Bft)
27.04.2018 10:06 11,2 C 84 % 1011,9 hPa 0,0 l/m 8,1 km/h (2 Bft) W-SW 243 3 min 469 W/m 8,6 C 10,0 C 14,5 km/h (3 Bft)
27.04.2018 10:09 11,4 C 84 % 1011,9 hPa 0,0 l/m 10,6 km/h (2 Bft) S-SW 203 3 min 510 W/m 8,8 C 8,8 C 16,1 km/h (3 Bft)
27.04.2018 10:12 11,4 C 83 % 1012,0 hPa 0,0 l/m 10,4 km/h (2 Bft) SW 219 3 min 533 W/m 8,6 C 8,9 C 16,1 km/h (3 Bft)
27.04.2018 10:15 11,6 C 84 % 1012,0 hPa 0,0 l/m 10,3 km/h (2 Bft) SW 218 3 min 543 W/m 9,0 C 9,2 C 19,3 km/h (3 Bft)
27.04.2018 10:18 11,7 C 83 % 1012,0 hPa 0,0 l/m 12,0 km/h (2 Bft) SW 221 3 min 570 W/m 8,9 C 8,5 C 19,3 km/h (3 Bft)
27.04.2018 10:21 11,8 C 82 % 1012,0 hPa 0,0 l/m 10,7 km/h (2 Bft) S-SW 194 3 min 563 W/m 8,8 C 9,2 C 17,7 km/h (3 Bft)
27.04.2018 10:24 11,8 C 82 % 1012,0 hPa 0,0 l/m 9,7 km/h (2 Bft) SW 219 3 min 578 W/m 8,8 C 9,7 C 14,5 km/h (3 Bft)
27.04.2018 10:27 11,7 C 81 % 1012,0 hPa 0,0 l/m 11,7 km/h (2 Bft) SW 228 0 min 105 W/m 8,5 C 8,6 C 17,7 km/h (3 Bft)
27.04.2018 10:30 11,4 C 82 % 1012,0 hPa 0,0 l/m 10,5 km/h (2 Bft) S 184 0 min 105 W/m 8,4 C 8,9 C 16,1 km/h (3 Bft)
27.04.2018 10:33 11,4 C 83 % 1012,1 hPa 0,0 l/m 11,6 km/h (2 Bft) S-SW 213 0 min 105 W/m 8,6 C 8,3 C 17,7 km/h (3 Bft)
27.04.2018 10:36 11,4 C 83 % 1012,1 hPa 0,0 l/m 11,8 km/h (2 Bft) SW 214 3 min 582 W/m 8,6 C 8,2 C 17,7 km/h (3 Bft)
27.04.2018 10:39 11,6 C 82 % 1012,1 hPa 0,0 l/m 13,6 km/h (3 Bft) SW 220 3 min 555 W/m 8,6 C 7,6 C 20,9 km/h (4 Bft)
27.04.2018 10:42 11,8 C 82 % 1012,1 hPa 0,0 l/m 11,0 km/h (2 Bft) S-SO 157 3 min 566 W/m 8,8 C 9,1 C 16,1 km/h (3 Bft)
27.04.2018 10:45 12,1 C 82 % 1012,0 hPa 0,0 l/m 12,1 km/h (2 Bft) S 169 3 min 564 W/m 9,1 C 8,9 C 17,7 km/h (3 Bft)
27.04.2018 10:48 12,3 C 81 % 1012,1 hPa 0,0 l/m 10,5 km/h (2 Bft) S-SO 166 3 min 710 W/m 9,1 C 9,9 C 16,1 km/h (3 Bft)
27.04.2018 10:51 12,4 C 80 % 1012,2 hPa 0,0 l/m 13,6 km/h (3 Bft) SW 224 0 min 250 W/m 9,0 C 8,6 C 24,1 km/h (4 Bft)
27.04.2018 10:54 12,4 C 80 % 1012,1 hPa 0,0 l/m 10,4 km/h (2 Bft) SW 219 3 min 786 W/m 9,0 C 10,0 C 20,9 km/h (4 Bft)
27.04.2018 10:57 12,7 C 81 % 1012,1 hPa 0,0 l/m 10,9 km/h (2 Bft) SW 215 3 min 747 W/m 9,5 C 10,1 C 16,1 km/h (3 Bft)
27.04.2018 11:00 12,9 C 79 % 1012,1 hPa 0,0 l/m 11,6 km/h (2 Bft) SW 227 3 min 694 W/m 9,3 C 10,0 C 19,3 km/h (3 Bft)
27.04.2018 11:03 12,7 C 78 % 1012,0 hPa 0,0 l/m 16,0 km/h (3 Bft) W-SW 255 3 min 766 W/m 9,0 C 8,0 C 25,7 km/h (4 Bft)
27.04.2018 11:06 12,4 C 78 % 1011,9 hPa 0,0 l/m 14,3 km/h (3 Bft) SW 228 3 min 626 W/m 8,7 C 8,3 C 22,5 km/h (4 Bft)
27.04.2018 11:09 12,3 C 78 % 1012,0 hPa 0,0 l/m 12,3 km/h (2 Bft) SW 225 3 min 635 W/m 8,6 C 9,0 C 19,3 km/h (3 Bft)
27.04.2018 11:12 12,4 C 79 % 1012,0 hPa 0,0 l/m 11,3 km/h (2 Bft) SW 227 3 min 594 W/m 8,9 C 9,6 C 24,1 km/h (4 Bft)
27.04.2018 11:15 12,4 C 78 % 1012,0 hPa 0,0 l/m 15,5 km/h (3 Bft) W-SW 238 3 min 694 W/m 8,7 C 7,9 C 24,1 km/h (4 Bft)
27.04.2018 11:18 12,7 C 79 % 1012,0 hPa 0,0 l/m 10,0 km/h (2 Bft) SW 225 3 min 728 W/m 9,2 C 10,6 C 16,1 km/h (3 Bft)
27.04.2018 11:21 13,1 C 78 % 1012,0 hPa 0,0 l/m 12,3 km/h (2 Bft) S-SW 203 3 min 708 W/m 9,4 C 10,0 C 20,9 km/h (4 Bft)
27.04.2018 11:24 13,1 C 76 % 1012,0 hPa 0,0 l/m 11,7 km/h (2 Bft) S-SW 212 3 min 687 W/m 9,0 C 10,2 C 20,9 km/h (4 Bft)
27.04.2018 11:27 13,1 C 76 % 1012,0 hPa 0,0 l/m 14,1 km/h (3 Bft) SW 233 3 min 710 W/m 9,0 C 9,2 C 20,9 km/h (4 Bft)
27.04.2018 11:30 12,9 C 77 % 1012,0 hPa 0,0 l/m 12,5 km/h (2 Bft) W-SW 239 3 min 705 W/m 9,0 C 9,6 C 20,9 km/h (4 Bft)
27.04.2018 11:33 13,1 C 77 % 1012,0 hPa 0,0 l/m 10,6 km/h (2 Bft) SW 222 3 min 705 W/m 9,2 C 10,7 C 19,3 km/h (3 Bft)
27.04.2018 11:36 12,9 C 76 % 1012,0 hPa 0,0 l/m 15,0 km/h (3 Bft) SW 219 3 min 415 W/m 8,8 C 8,6 C 22,5 km/h (4 Bft)
27.04.2018 11:39 12,9 C 77 % 1011,9 hPa 0,0 l/m 16,0 km/h (3 Bft) SW 215 3 min 733 W/m 9,0 C 8,3 C 22,5 km/h (4 Bft)
27.04.2018 11:42 13,1 C 77 % 1011,9 hPa 0,0 l/m 13,8 km/h (3 Bft) SW 233 3 min 721 W/m 9,2 C 9,3 C 19,3 km/h (3 Bft)
27.04.2018 11:45 13,1 C 75 % 1011,9 hPa 0,0 l/m 14,6 km/h (3 Bft) SW 232 3 min 719 W/m 8,8 C 9,0 C 24,1 km/h (4 Bft)
27.04.2018 11:48 13,3 C 74 % 1011,9 hPa 0,0 l/m 11,0 km/h (2 Bft) SW 227 3 min 684 W/m 8,8 C 10,8 C 22,5 km/h (4 Bft)
27.04.2018 11:51 13,7 C 74 % 1011,9 hPa 0,0 l/m 9,5 km/h (2 Bft) SW 228 3 min 671 W/m 9,2 C 11,9 C 17,7 km/h (3 Bft)
27.04.2018 11:54 13,9 C 73 % 1011,8 hPa 0,0 l/m 10,3 km/h (2 Bft) SW 232 3 min 659 W/m 9,1 C 11,8 C 19,3 km/h (3 Bft)
27.04.2018 11:57 13,8 C 72 % 1011,8 hPa 0,0 l/m 12,6 km/h (3 Bft) S 190 3 min 656 W/m 8,8 C 10,6 C 16,1 km/h (3 Bft)
27.04.2018 12:00 13,6 C 70 % 1011,7 hPa 0,0 l/m 15,9 km/h (3 Bft) W-SW 244 3 min 647 W/m 8,2 C 9,2 C 24,1 km/h (4 Bft)
27.04.2018 12:03 13,7 C 72 % 1011,8 hPa 0,0 l/m 13,2 km/h (3 Bft) S-SW 204 3 min 638 W/m 8,7 C 10,3 C 20,9 km/h (4 Bft)
27.04.2018 12:06 13,7 C 70 % 1011,6 hPa 0,0 l/m 12,2 km/h (2 Bft) SW 234 3 min 635 W/m 8,3 C 10,7 C 19,3 km/h (3 Bft)
27.04.2018 12:09 13,8 C 70 % 1011,7 hPa 0,0 l/m 11,6 km/h (2 Bft) SW 234 3 min 596 W/m 8,4 C 11,1 C 19,3 km/h (3 Bft)
27.04.2018 12:12 14,0 C 70 % 1011,7 hPa 0,0 l/m 10,6 km/h (2 Bft) S-SW 199 3 min 622 W/m 8,6 C 11,7 C 19,3 km/h (3 Bft)
27.04.2018 12:15 13,9 C 68 % 1011,7 hPa 0,0 l/m 14,1 km/h (3 Bft) SW 221 3 min 626 W/m 8,1 C 10,2 C 20,9 km/h (4 Bft)
27.04.2018 12:18 13,6 C 69 % 1011,7 hPa 0,0 l/m 15,1 km/h (3 Bft) S-SW 207 0 min 134 W/m 8,0 C 9,5 C 20,9 km/h (4 Bft)
27.04.2018 12:21 13,5 C 71 % 1011,6 hPa 0,0 l/m 11,0 km/h (2 Bft) SW 224 3 min 613 W/m 8,3 C 11,0 C 20,9 km/h (4 Bft)
27.04.2018 12:24 13,9 C 71 % 1011,6 hPa 0,0 l/m 12,0 km/h (2 Bft) W-SW 242 3 min 617 W/m 8,7 C 11,0 C 19,3 km/h (3 Bft)
27.04.2018 12:27 14,2 C 69 % 1011,5 hPa 0,0 l/m 11,3 km/h (2 Bft) S-SW 211 3 min 631 W/m 8,6 C 11,6 C 19,3 km/h (3 Bft)
27.04.2018 12:30 14,0 C 69 % 1011,5 hPa 0,0 l/m 10,5 km/h (2 Bft) SW 236 0 min 100 W/m 8,4 C 11,8 C 17,7 km/h (3 Bft)
27.04.2018 12:33 13,7 C 69 % 1011,5 hPa 0,0 l/m 10,9 km/h (2 Bft) SW 219 0 min 141 W/m 8,1 C 11,3 C 16,1 km/h (3 Bft)
27.04.2018 12:36 13,4 C 70 % 1011,5 hPa 0,0 l/m 12,5 km/h (2 Bft) W-SW 246 0 min 149 W/m 8,0 C 10,2 C 20,9 km/h (4 Bft)
27.04.2018 12:39 13,5 C 72 % 1011,5 hPa 0,0 l/m 11,1 km/h (2 Bft) W 267 3 min 415 W/m 8,6 C 10,9 C 17,7 km/h (3 Bft)
27.04.2018 12:42 13,6 C 72 % 1011,5 hPa 0,0 l/m 12,0 km/h (2 Bft) W-SW 257 0 min 125 W/m 8,6 C 10,7 C 19,3 km/h (3 Bft)
27.04.2018 12:45 13,3 C 68 % 1011,4 hPa 0,0 l/m 11,5 km/h (2 Bft) SW 220 0 min 135 W/m 7,5 C 10,5 C 17,7 km/h (3 Bft)
27.04.2018 12:48 13,2 C 69 % 1011,4 hPa 0,0 l/m 10,8 km/h (2 Bft) S-SW 207 0 min 135 W/m 7,6 C 10,7 C 17,7 km/h (3 Bft)
27.04.2018 12:51 13,3 C 70 % 1011,3 hPa 0,0 l/m 9,8 km/h (2 Bft) SW 221 0 min 127 W/m 7,9 C 11,3 C 17,7 km/h (3 Bft)
27.04.2018 12:54 13,3 C 68 % 1011,3 hPa 0,0 l/m 12,8 km/h (3 Bft) SW 220 0 min 172 W/m 7,5 C 10,0 C 19,3 km/h (3 Bft)
27.04.2018 12:57 13,6 C 69 % 1011,3 hPa 0,0 l/m 9,4 km/h (2 Bft) W-SW 258 3 min 838 W/m 8,0 C 11,9 C 14,5 km/h (3 Bft)
27.04.2018 13:00 13,8 C 67 % 1011,2 hPa 0,0 l/m 12,2 km/h (2 Bft) SW 217 3 min 793 W/m 7,8 C 10,8 C 19,3 km/h (3 Bft)
27.04.2018 13:03 14,0 C 67 % 1011,2 hPa 0,0 l/m 7,7 km/h (2 Bft) W-SW 240 3 min 812 W/m 8,0 C 13,2 C 16,1 km/h (3 Bft)
27.04.2018 13:06 14,2 C 66 % 1011,2 hPa 0,0 l/m 10,7 km/h (2 Bft) W 261 3 min 812 W/m 7,9 C 11,9 C 22,5 km/h (4 Bft)
27.04.2018 13:09 14,2 C 67 % 1011,2 hPa 0,0 l/m 13,8 km/h (3 Bft) SW 217 3 min 812 W/m 8,2 C 10,6 C 20,9 km/h (4 Bft)
27.04.2018 13:12 14,1 C 68 % 1011,2 hPa 0,0 l/m 9,7 km/h (2 Bft) S-SW 213 0 min 155 W/m 8,3 C 12,3 C 17,7 km/h (3 Bft)
27.04.2018 13:15 13,8 C 69 % 1011,1 hPa 0,0 l/m 11,2 km/h (2 Bft) SW 228 0 min 162 W/m 8,2 C 11,2 C 17,7 km/h (3 Bft)
27.04.2018 13:18 13,9 C 71 % 1011,0 hPa 0,0 l/m 9,7 km/h (2 Bft) SW 236 3 min 807 W/m 8,7 C 12,0 C 17,7 km/h (3 Bft)
27.04.2018 13:21 14,3 C 68 % 1011,1 hPa 0,0 l/m 9,3 km/h (2 Bft) W-SW 237 3 min 768 W/m 8,5 C 12,7 C 17,7 km/h (3 Bft)
27.04.2018 13:24 14,5 C 65 % 1011,0 hPa 0,0 l/m 12,5 km/h (2 Bft) W-SW 238 3 min 703 W/m 8,0 C 11,5 C 19,3 km/h (3 Bft)
27.04.2018 13:27 14,3 C 65 % 1011,1 hPa 0,0 l/m 7,2 km/h (2 Bft) W-SW 258 3 min 694 W/m 7,8 C 13,8 C 12,9 km/h (3 Bft)
27.04.2018 13:30 14,4 C 66 % 1011,1 hPa 0,0 l/m 10,2 km/h (2 Bft) W-SW 254 3 min 742 W/m 8,1 C 12,4 C 20,9 km/h (4 Bft)
27.04.2018 13:33 14,7 C 68 % 1011,0 hPa 0,0 l/m 9,6 km/h (2 Bft) SW 230 3 min 612 W/m 8,9 C 13,0 C 17,7 km/h (3 Bft)
27.04.2018 13:36 14,7 C 66 % 1010,9 hPa 0,0 l/m 12,8 km/h (3 Bft) SW 220 3 min 589 W/m 8,4 C 11,6 C 25,7 km/h (4 Bft)
27.04.2018 13:39 14,6 C 67 % 1010,9 hPa 0,0 l/m 11,3 km/h (2 Bft) SW 234 3 min 599 W/m 8,5 C 12,1 C 19,3 km/h (3 Bft)
27.04.2018 13:42 14,6 C 68 % 1010,9 hPa 0,0 l/m 13,7 km/h (3 Bft) SW 216 3 min 599 W/m 8,8 C 11,2 C 22,5 km/h (4 Bft)
27.04.2018 13:45 14,6 C 66 % 1010,8 hPa 0,0 l/m 10,9 km/h (2 Bft) W-SW 240 3 min 603 W/m 8,3 C 12,3 C 19,3 km/h (3 Bft)
27.04.2018 13:48 14,6 C 66 % 1010,8 hPa 0,0 l/m 8,6 km/h (2 Bft) S-SW 208 3 min 580 W/m 8,3 C 13,4 C 17,7 km/h (3 Bft)
27.04.2018 13:51 14,7 C 66 % 1010,7 hPa 0,0 l/m 10,3 km/h (2 Bft) W-SW 254 3 min 587 W/m 8,4 C 12,6 C 17,7 km/h (3 Bft)
27.04.2018 13:54 14,9 C 64 % 1010,7 hPa 0,0 l/m 10,3 km/h (2 Bft) SW 236 3 min 573 W/m 8,2 C 12,9 C 17,7 km/h (3 Bft)
27.04.2018 13:57 15,0 C 64 % 1010,7 hPa 0,0 l/m 9,9 km/h (2 Bft) W 265 3 min 519 W/m 8,2 C 13,2 C 17,7 km/h (3 Bft)
27.04.2018 14:00 14,9 C 64 % 1010,8 hPa 0,0 l/m 9,2 km/h (2 Bft) SW 233 3 min 475 W/m 8,2 C 13,4 C 17,7 km/h (3 Bft)
27.04.2018 14:03 14,8 C 63 % 1010,8 hPa 0,0 l/m 12,2 km/h (2 Bft) SW 234 3 min 462 W/m 7,8 C 12,0 C 16,1 km/h (3 Bft)
27.04.2018 14:06 14,7 C 63 % 1010,8 hPa 0,0 l/m 12,2 km/h (2 Bft) SW 223 3 min 492 W/m 7,7 C 11,8 C 19,3 km/h (3 Bft)
27.04.2018 14:09 14,7 C 65 % 1010,8 hPa 0,0 l/m 9,2 km/h (2 Bft) SW 234 3 min 504 W/m 8,2 C 13,2 C 14,5 km/h (3 Bft)
27.04.2018 14:12 14,7 C 64 % 1010,7 hPa 0,0 l/m 10,9 km/h (2 Bft) W 278 3 min 436 W/m 8,0 C 12,4 C 16,1 km/h (3 Bft)
27.04.2018 14:15 14,6 C 64 % 1010,8 hPa 0,0 l/m 12,2 km/h (2 Bft) W-SW 257 0 min 397 W/m 7,9 C 11,7 C 17,7 km/h (3 Bft)
27.04.2018 14:18 14,6 C 63 % 1010,7 hPa 0,0 l/m 8,9 km/h (2 Bft) W 266 0 min 403 W/m 7,6 C 13,2 C 17,7 km/h (3 Bft)
27.04.2018 14:21 14,7 C 64 % 1010,7 hPa 0,0 l/m 9,0 km/h (2 Bft) W-SW 255 3 min 422 W/m 8,0 C 13,3 C 14,5 km/h (3 Bft)
27.04.2018 14:24 14,6 C 64 % 1010,8 hPa 0,0 l/m 9,2 km/h (2 Bft) W 281 3 min 438 W/m 7,9 C 13,1 C 14,5 km/h (3 Bft)
27.04.2018 14:27 14,5 C 64 % 1010,7 hPa 0,0 l/m 11,7 km/h (2 Bft) W 259 3 min 462 W/m 7,8 C 11,8 C 20,9 km/h (4 Bft)
27.04.2018 14:30 14,4 C 64 % 1010,7 hPa 0,0 l/m 10,1 km/h (2 Bft) W 274 3 min 420 W/m 7,7 C 12,4 C 19,3 km/h (3 Bft)
27.04.2018 14:33 14,5 C 64 % 1010,7 hPa 0,0 l/m 9,0 km/h (2 Bft) S-SW 213 0 min 392 W/m 7,8 C 13,1 C 12,9 km/h (3 Bft)
27.04.2018 14:36 14,5 C 64 % 1010,6 hPa 0,0 l/m 9,2 km/h (2 Bft) W-NW 282 3 min 471 W/m 7,8 C 13,0 C 14,5 km/h (3 Bft)
27.04.2018 14:39 14,7 C 62 % 1010,7 hPa 0,0 l/m 13,2 km/h (3 Bft) SW 219 3 min 483 W/m 7,5 C 11,5 C 20,9 km/h (4 Bft)
27.04.2018 14:42 14,9 C 63 % 1010,7 hPa 0,0 l/m 8,0 km/h (2 Bft) W 263 3 min 487 W/m 7,9 C 14,0 C 12,9 km/h (3 Bft)
27.04.2018 14:45 15,1 C 62 % 1010,7 hPa 0,0 l/m 8,3 km/h (2 Bft) SW 217 3 min 589 W/m 7,9 C 14,0 C 12,9 km/h (3 Bft)
27.04.2018 14:48 15,0 C 63 % 1010,6 hPa 0,0 l/m 8,0 km/h (2 Bft) S-SW 207 3 min 501 W/m 8,0 C 14,1 C 14,5 km/h (3 Bft)
27.04.2018 14:51 15,1 C 63 % 1010,5 hPa 0,0 l/m 9,8 km/h (2 Bft) W-SW 254 3 min 492 W/m 8,1 C 13,3 C 16,1 km/h (3 Bft)
27.04.2018 14:54 15,2 C 61 % 1010,5 hPa 0,0 l/m 6,2 km/h (2 Bft) S 190 3 min 566 W/m 7,7 C 15,2 C 11,3 km/h (2 Bft)
27.04.2018 14:57 15,5 C 61 % 1010,5 hPa 0,0 l/m 9,2 km/h (2 Bft) S 175 3 min 657 W/m 8,0 C 14,0 C 17,7 km/h (3 Bft)
27.04.2018 15:00 15,7 C 57 % 1010,4 hPa 0,0 l/m 5,9 km/h (2 Bft) SW 228 3 min 633 W/m 7,2 C 15,7 C 14,5 km/h (3 Bft)
27.04.2018 15:03 15,8 C 55 % 1010,3 hPa 0,0 l/m 9,5 km/h (2 Bft) W-SW 240 3 min 654 W/m 6,8 C 14,2 C 16,1 km/h (3 Bft)
27.04.2018 15:06 15,5 C 55 % 1010,3 hPa 0,0 l/m 9,4 km/h (2 Bft) SW 232 0 min 211 W/m 6,5 C 13,9 C 19,3 km/h (3 Bft)
27.04.2018 15:09 15,2 C 55 % 1010,3 hPa 0,0 l/m 8,8 km/h (2 Bft) SW 226 0 min 221 W/m 6,2 C 13,9 C 16,1 km/h (3 Bft)
27.04.2018 15:12 15,2 C 57 % 1010,1 hPa 0,0 l/m 4,2 km/h (1 Bft) W-SW 238 3 min 823 W/m 6,7 C 15,2 C 8,0 km/h (2 Bft)
27.04.2018 15:15 15,4 C 56 % 1010,1 hPa 0,0 l/m 8,5 km/h (2 Bft) SW 219 3 min 823 W/m 6,7 C 14,3 C 14,5 km/h (3 Bft)
27.04.2018 15:18 15,3 C 58 % 1010,1 hPa 0,0 l/m 10,9 km/h (2 Bft) S-SW 213 3 min 823 W/m 7,1 C 13,1 C 17,7 km/h (3 Bft)
27.04.2018 15:21 15,4 C 56 % 1010,1 hPa 0,0 l/m 8,0 km/h (2 Bft) S-SO 162 0 min 257 W/m 6,7 C 14,5 C 14,5 km/h (3 Bft)
27.04.2018 15:24 15,5 C 57 % 1010,1 hPa 0,0 l/m 10,3 km/h (2 Bft) S-SW 206 0 min 274 W/m 7,0 C 13,5 C 30,6 km/h (5 Bft)
27.04.2018 15:27 15,5 C 53 % 1010,1 hPa 0,0 l/m 8,1 km/h (2 Bft) SW 228 3 min 773 W/m 6,0 C 14,6 C 16,1 km/h (3 Bft)
27.04.2018 15:30 15,5 C 55 % 1010,0 hPa 0,0 l/m 6,6 km/h (2 Bft) SO 126 3 min 417 W/m 6,5 C 15,4 C 11,3 km/h (2 Bft)
27.04.2018 15:33 15,4 C 50 % 1010,0 hPa 0,0 l/m 8,3 km/h (2 Bft) S-SW 192 3 min 476 W/m 5,0 C 14,4 C 17,7 km/h (3 Bft)
27.04.2018 15:36 15,7 C 55 % 1009,9 hPa 0,0 l/m 6,1 km/h (2 Bft) SW 227 0 min 272 W/m 6,7 C 15,7 C 14,5 km/h (3 Bft)
27.04.2018 15:39 15,6 C 54 % 1010,0 hPa 0,0 l/m 5,4 km/h (2 Bft) SW 236 0 min 322 W/m 6,3 C 15,6 C 11,3 km/h (2 Bft)
27.04.2018 15:42 15,4 C 57 % 1009,8 hPa 0,0 l/m 6,2 km/h (2 Bft) SW 236 0 min 343 W/m 6,9 C 15,4 C 14,5 km/h (3 Bft)
27.04.2018 15:45 15,5 C 55 % 1009,8 hPa 0,0 l/m 7,1 km/h (2 Bft) S 172 3 min 385 W/m 6,5 C 15,1 C 17,7 km/h (3 Bft)
27.04.2018 15:48 15,7 C 56 % 1009,8 hPa 0,0 l/m 4,7 km/h (1 Bft) S-SW 196 3 min 599 W/m 6,9 C 15,7 C 11,3 km/h (2 Bft)
27.04.2018 15:51 15,9 C 52 % 1009,7 hPa 0,0 l/m 3,4 km/h (1 Bft) S 191 0 min 308 W/m 6,1 C 15,9 C 8,0 km/h (2 Bft)
27.04.2018 15:54 15,9 C 52 % 1009,7 hPa 0,0 l/m 4,0 km/h (1 Bft) O 93 3 min 380 W/m 6,1 C 15,9 C 9,7 km/h (2 Bft)
27.04.2018 15:57 15,5 C 57 % 1009,7 hPa 0,0 l/m 3,8 km/h (1 Bft) O-NO 61 3 min 483 W/m 7,0 C 15,5 C 8,0 km/h (2 Bft)
27.04.2018 16:00 15,2 C 59 % 1009,7 hPa 0,0 l/m 4,8 km/h (1 Bft) O-NO 68 3 min 457 W/m 7,2 C 15,2 C 8,0 km/h (2 Bft)
27.04.2018 16:03 15,3 C 61 % 1009,6 hPa 0,0 l/m 1,9 km/h (1 Bft) NO 40 0 min 334 W/m 7,8 C 15,3 C 8,0 km/h (2 Bft)
27.04.2018 16:06 15,2 C 60 % 1009,6 hPa 0,0 l/m 3,4 km/h (1 Bft) NO 53 0 min 295 W/m 7,5 C 15,2 C 12,9 km/h (3 Bft)
27.04.2018 16:09 15,1 C 59 % 1009,5 hPa 0,0 l/m 3,7 km/h (1 Bft) NO 44 0 min 225 W/m 7,1 C 15,1 C 9,7 km/h (2 Bft)
27.04.2018 16:12 14,8 C 58 % 1009,5 hPa 0,0 l/m 3,6 km/h (1 Bft) O 90 0 min 251 W/m 6,6 C 14,8 C 8,0 km/h (2 Bft)
27.04.2018 16:15 14,8 C 62 % 1009,4 hPa 0,0 l/m 2,3 km/h (1 Bft) O 87 3 min 385 W/m 7,6 C 14,8 C 4,8 km/h (1 Bft)
27.04.2018 16:18 15,1 C 62 % 1009,4 hPa 0,0 l/m 3,1 km/h (1 Bft) O-NO 57 3 min 545 W/m 7,9 C 15,1 C 8,0 km/h (2 Bft)
27.04.2018 16:21 15,2 C 65 % 1009,3 hPa 0,0 l/m 3,0 km/h (1 Bft) NO 53 0 min 176 W/m 8,7 C 15,2 C 6,4 km/h (2 Bft)
27.04.2018 16:24 15,1 C 64 % 1009,2 hPa 0,0 l/m 3,3 km/h (1 Bft) N-NO 15 0 min 156 W/m 8,3 C 15,1 C 8,0 km/h (2 Bft)
27.04.2018 16:27 14,8 C 65 % 1009,3 hPa 0,0 l/m 2,8 km/h (1 Bft) N 5 0 min 167 W/m 8,3 C 14,8 C 4,8 km/h (1 Bft)
27.04.2018 16:30 14,5 C 65 % 1009,4 hPa 0,0 l/m 1,8 km/h (1 Bft) N 10 0 min 148 W/m 8,0 C 14,5 C 4,8 km/h (1 Bft)
27.04.2018 16:33 14,4 C 68 % 1009,4 hPa 0,0 l/m 1,8 km/h (1 Bft) N 10 0 min 121 W/m 8,6 C 14,4 C 3,2 km/h (1 Bft)
27.04.2018 16:36 14,3 C 70 % 1009,4 hPa 0,0 l/m 2,2 km/h (1 Bft) N-NO 26 0 min 144 W/m 8,9 C 14,3 C 4,8 km/h (1 Bft)
27.04.2018 16:39 14,0 C 71 % 1009,3 hPa 0,0 l/m 3,1 km/h (1 Bft) N 360 0 min 153 W/m 8,8 C 14,0 C 4,8 km/h (1 Bft)
27.04.2018 16:42 13,8 C 71 % 1009,3 hPa 0,0 l/m 4,1 km/h (1 Bft) N 11 0 min 148 W/m 8,6 C 13,8 C 8,0 km/h (2 Bft)
27.04.2018 16:45 13,8 C 72 % 1009,3 hPa 0,0 l/m 2,9 km/h (1 Bft) N 11 0 min 178 W/m 8,8 C 13,8 C 4,8 km/h (1 Bft)
27.04.2018 16:48 13,8 C 71 % 1009,3 hPa 0,0 l/m 3,1 km/h (1 Bft) N 11 0 min 151 W/m 8,6 C 13,8 C 6,4 km/h (2 Bft)
27.04.2018 16:51 13,7 C 70 % 1009,2 hPa 0,0 l/m 1,1 km/h (1 Bft) N 11 0 min 121 W/m 8,3 C 13,7 C 4,8 km/h (1 Bft)
27.04.2018 16:54 13,8 C 71 % 1009,2 hPa 0,0 l/m 2,1 km/h (1 Bft) N-NO 15 0 min 95 W/m 8,6 C 13,8 C 4,8 km/h (1 Bft)
27.04.2018 16:57 13,7 C 69 % 1009,2 hPa 0,0 l/m 3,3 km/h (1 Bft) N-NO 24 0 min 74 W/m 8,1 C 13,7 C 8,0 km/h (2 Bft)
27.04.2018 17:00 13,6 C 70 % 1009,3 hPa 0,0 l/m 2,6 km/h (1 Bft) N-NW 329 0 min 84 W/m 8,2 C 13,6 C 6,4 km/h (2 Bft)
27.04.2018 17:03 13,6 C 69 % 1009,2 hPa 0,0 l/m 4,2 km/h (1 Bft) N-NW 340 0 min 93 W/m 8,0 C 13,6 C 8,0 km/h (2 Bft)
27.04.2018 17:06 13,5 C 69 % 1009,2 hPa 0,0 l/m 5,5 km/h (2 Bft) N-NO 19 0 min 95 W/m 7,9 C 13,5 C 11,3 km/h (2 Bft)
27.04.2018 17:09 13,4 C 68 % 1009,3 hPa 0,0 l/m 4,5 km/h (1 Bft) N 360 0 min 97 W/m 7,6 C 13,4 C 8,0 km/h (2 Bft)
27.04.2018 17:12 13,4 C 68 % 1009,3 hPa 0,0 l/m 4,2 km/h (1 Bft) N-NW 344 0 min 98 W/m 7,6 C 13,4 C 8,0 km/h (2 Bft)
27.04.2018 17:15 13,4 C 68 % 1009,3 hPa 0,0 l/m 2,7 km/h (1 Bft) N-NW 344 0 min 97 W/m 7,6 C 13,4 C 4,8 km/h (1 Bft)
27.04.2018 17:18 13,4 C 68 % 1009,3 hPa 0,0 l/m 0,8 km/h (0 Bft) N-NW 344 0 min 91 W/m 7,6 C 13,4 C 4,8 km/h (1 Bft)
27.04.2018 17:21 13,4 C 69 % 1009,3 hPa 0,0 l/m 1,8 km/h (1 Bft) N-NW 344 0 min 77 W/m 7,8 C 13,4 C 4,8 km/h (1 Bft)
27.04.2018 17:24 13,3 C 68 % 1009,3 hPa 0,0 l/m 2,1 km/h (1 Bft) N-NW 342 0 min 84 W/m 7,5 C 13,3 C 6,4 km/h (2 Bft)
27.04.2018 17:27 13,3 C 69 % 1009,3 hPa 0,0 l/m 2,1 km/h (1 Bft) N-NW 342 0 min 95 W/m 7,7 C 13,3 C 4,8 km/h (1 Bft)
27.04.2018 17:30 13,3 C 68 % 1009,3 hPa 0,0 l/m 2,8 km/h (1 Bft) N-NW 342 0 min 104 W/m 7,5 C 13,3 C 6,4 km/h (2 Bft)
27.04.2018 17:33 13,4 C 69 % 1009,3 hPa 0,0 l/m 2,7 km/h (1 Bft) N-NW 342 0 min 111 W/m 7,8 C 13,4 C 4,8 km/h (1 Bft)
27.04.2018 17:36 13,4 C 70 % 1009,3 hPa 0,0 l/m 2,2 km/h (1 Bft) N-NW 342 0 min 102 W/m 8,0 C 13,4 C 6,4 km/h (2 Bft)
27.04.2018 17:39 13,4 C 70 % 1009,3 hPa 0,0 l/m 3,0 km/h (1 Bft) N-NW 342 0 min 90 W/m 8,0 C 13,4 C 6,4 km/h (2 Bft)
27.04.2018 17:42 13,3 C 70 % 1009,3 hPa 0,0 l/m 4,3 km/h (1 Bft) N 350 0 min 77 W/m 7,9 C 13,3 C 8,0 km/h (2 Bft)
27.04.2018 17:45 13,3 C 70 % 1009,3 hPa 0,0 l/m 4,3 km/h (1 Bft) N 355 0 min 63 W/m 7,9 C 13,3 C 8,0 km/h (2 Bft)
27.04.2018 17:48 13,3 C 71 % 1009,3 hPa 0,0 l/m 4,4 km/h (1 Bft) N-NW 344 0 min 51 W/m 8,2 C 13,3 C 8,0 km/h (2 Bft)
27.04.2018 17:51 13,3 C 70 % 1009,3 hPa 0,0 l/m 2,9 km/h (1 Bft) N-NW 345 0 min 42 W/m 7,9 C 13,3 C 8,0 km/h (2 Bft)
27.04.2018 17:54 13,3 C 71 % 1009,3 hPa 0,0 l/m 2,0 km/h (1 Bft) N-NW 345 0 min 40 W/m 8,2 C 13,3 C 4,8 km/h (1 Bft)
27.04.2018 17:57 13,2 C 71 % 1009,3 hPa 0,0 l/m 2,8 km/h (1 Bft) N-NW 345 0 min 39 W/m 8,1 C 13,2 C 6,4 km/h (2 Bft)
27.04.2018 18:00 13,1 C 71 % 1009,3 hPa 0,0 l/m 1,1 km/h (1 Bft) N-NW 345 0 min 30 W/m 8,0 C 13,1 C 4,8 km/h (1 Bft)
27.04.2018 18:03 13,1 C 72 % 1009,2 hPa 0,0 l/m 1,6 km/h (1 Bft) N-NW 345 0 min 23 W/m 8,2 C 13,1 C 4,8 km/h (1 Bft)
27.04.2018 18:06 13,0 C 72 % 1009,2 hPa 0,0 l/m 0,7 km/h (0 Bft) N-NW 345 0 min 21 W/m 8,1 C 13,0 C 1,6 km/h (1 Bft)
27.04.2018 18:09 13,0 C 72 % 1009,2 hPa 0,0 l/m 0,8 km/h (0 Bft) N-NW 345 0 min 23 W/m 8,1 C 13,0 C 4,8 km/h (1 Bft)
27.04.2018 18:12 12,9 C 73 % 1009,2 hPa 0,0 l/m 0,2 km/h (0 Bft) N-NW 345 0 min 30 W/m 8,2 C 12,9 C 1,6 km/h (1 Bft)
27.04.2018 18:15 12,9 C 73 % 1009,3 hPa 0,0 l/m 0,0 km/h (0 Bft) N-NW 345 0 min 46 W/m 8,2 C 12,9 C 0,0 km/h (0 Bft)
27.04.2018 18:18 12,9 C 73 % 1009,2 hPa 0,0 l/m 0,2 km/h (0 Bft) N-NW 345 0 min 65 W/m 8,2 C 12,9 C 1,6 km/h (1 Bft)
27.04.2018 18:21 12,8 C 74 % 1009,2 hPa 0,0 l/m 0,1 km/h (0 Bft) N-NW 345 0 min 79 W/m 8,3 C 12,8 C 1,6 km/h (1 Bft)
27.04.2018 18:24 12,8 C 74 % 1009,2 hPa 0,0 l/m 0,0 km/h (0 Bft) N-NW 345 0 min 77 W/m 8,3 C 12,8 C 0,0 km/h (0 Bft)
27.04.2018 18:27 12,9 C 74 % 1009,2 hPa 0,0 l/m 0,0 km/h (0 Bft) N-NW 345 0 min 76 W/m 8,4 C 12,9 C 0,0 km/h (0 Bft)
27.04.2018 18:30 12,9 C 74 % 1009,2 hPa 0,0 l/m 0,0 km/h (0 Bft) N-NW 345 0 min 67 W/m 8,4 C 12,9 C 0,0 km/h (0 Bft)
27.04.2018 18:33 12,9 C 74 % 1009,2 hPa 0,0 l/m 0,2 km/h (0 Bft) N-NW 345 0 min 63 W/m 8,4 C 12,9 C 3,2 km/h (1 Bft)
27.04.2018 18:36 12,9 C 74 % 1009,2 hPa 0,0 l/m 0,1 km/h (0 Bft) N-NW 345 0 min 54 W/m 8,4 C 12,9 C 1,6 km/h (1 Bft)
27.04.2018 18:39 12,9 C 74 % 1009,2 hPa 0,0 l/m 0,1 km/h (0 Bft) N-NW 345 0 min 42 W/m 8,4 C 12,9 C 1,6 km/h (1 Bft)
27.04.2018 18:42 12,9 C 74 % 1009,2 hPa 0,0 l/m 0,2 km/h (0 Bft) N-NW 345 0 min 33 W/m 8,4 C 12,9 C 1,6 km/h (1 Bft)
27.04.2018 18:45 12,8 C 74 % 1009,1 hPa 0,0 l/m 0,3 km/h (0 Bft) N-NW 345 0 min 30 W/m 8,3 C 12,8 C 1,6 km/h (1 Bft)
27.04.2018 18:48 12,8 C 75 % 1008,8 hPa 0,0 l/m 0,1 km/h (0 Bft) N-NW 345 0 min 19 W/m 8,5 C 12,8 C 1,6 km/h (1 Bft)
27.04.2018 18:51 12,8 C 75 % 1008,8 hPa 0,0 l/m 0,2 km/h (0 Bft) N-NW 345 0 min 16 W/m 8,5 C 12,8 C 1,6 km/h (1 Bft)
27.04.2018 18:54 12,8 C 75 % 1008,9 hPa 0,0 l/m 0,7 km/h (0 Bft) N-NW 345 0 min 14 W/m 8,5 C 12,8 C 3,2 km/h (1 Bft)
27.04.2018 18:57 12,7 C 76 % 1008,9 hPa 0,0 l/m 0,7 km/h (0 Bft) N-NW 345 0 min 12 W/m 8,6 C 12,7 C 3,2 km/h (1 Bft)
27.04.2018 19:00 12,6 C 76 % 1008,9 hPa 0,0 l/m 0,0 km/h (0 Bft) N-NW 345 0 min 9 W/m 8,5 C 12,6 C 0,0 km/h (0 Bft)
27.04.2018 19:03 12,5 C 76 % 1008,9 hPa 0,0 l/m 0,0 km/h (0 Bft) N-NW 345 0 min 9 W/m 8,4 C 12,5 C 0,0 km/h (0 Bft)
27.04.2018 19:06 12,4 C 76 % 1009,0 hPa 0,0 l/m 0,4 km/h (0 Bft) N-NW 345 0 min 7 W/m 8,3 C 12,4 C 3,2 km/h (1 Bft)
27.04.2018 19:09 12,4 C 77 % 1009,2 hPa 0,0 l/m 2,1 km/h (1 Bft) N-NW 345 0 min 7 W/m 8,5 C 12,4 C 4,8 km/h (1 Bft)
27.04.2018 19:12 12,4 C 77 % 1009,3 hPa 0,0 l/m 3,0 km/h (1 Bft) W-SW 239 0 min 5 W/m 8,5 C 12,4 C 8,0 km/h (2 Bft)
27.04.2018 19:15 12,3 C 77 % 1009,5 hPa 0,0 l/m 7,9 km/h (2 Bft) S-SW 203 0 min 5 W/m 8,4 C 11,3 C 20,9 km/h (4 Bft)
27.04.2018 19:18 11,9 C 74 % 1009,5 hPa 0,2 l/m 10,5 km/h (2 Bft) S 178 0 min 5 W/m 7,4 C 9,4 C 19,3 km/h (3 Bft)
27.04.2018 19:21 11,6 C 74 % 1009,6 hPa 0,2 l/m 5,9 km/h (2 Bft) S-SO 155 0 min 5 W/m 7,1 C 11,6 C 17,7 km/h (3 Bft)
27.04.2018 19:24 11,4 C 77 % 1009,7 hPa 0,0 l/m 6,7 km/h (2 Bft) S-SW 192 0 min 7 W/m 7,5 C 11,2 C 12,9 km/h (3 Bft)
27.04.2018 19:27 11,2 C 77 % 1009,7 hPa 0,0 l/m 6,8 km/h (2 Bft) W-SW 240 0 min 9 W/m 7,3 C 10,9 C 11,3 km/h (2 Bft)
27.04.2018 19:30 11,1 C 77 % 1009,8 hPa 0,0 l/m 7,5 km/h (2 Bft) S 186 0 min 12 W/m 7,2 C 10,3 C 14,5 km/h (3 Bft)
27.04.2018 19:33 10,9 C 77 % 1009,7 hPa 0,0 l/m 6,2 km/h (2 Bft) S 184 0 min 14 W/m 7,0 C 10,9 C 11,3 km/h (2 Bft)
27.04.2018 19:36 10,7 C 78 % 1009,7 hPa 0,0 l/m 7,1 km/h (2 Bft) SW 227 0 min 14 W/m 7,0 C 10,2 C 12,9 km/h (3 Bft)
27.04.2018 19:39 10,6 C 78 % 1009,7 hPa 0,0 l/m 5,8 km/h (2 Bft) S 188 0 min 11 W/m 6,9 C 10,6 C 9,7 km/h (2 Bft)
27.04.2018 19:42 10,6 C 79 % 1009,8 hPa 0,0 l/m 5,6 km/h (2 Bft) SW 214 0 min 11 W/m 7,1 C 10,6 C 9,7 km/h (2 Bft)
27.04.2018 19:45 10,5 C 79 % 1009,8 hPa 0,0 l/m 8,1 km/h (2 Bft) SW 214 0 min 14 W/m 7,0 C 9,3 C 11,3 km/h (2 Bft)
27.04.2018 19:48 10,4 C 79 % 1009,8 hPa 0,0 l/m 6,1 km/h (2 Bft) SW 227 0 min 25 W/m 6,9 C 10,4 C 9,7 km/h (2 Bft)
27.04.2018 19:51 10,4 C 80 % 1009,7 hPa 0,0 l/m 6,3 km/h (2 Bft) SW 229 0 min 25 W/m 7,1 C 10,4 C 8,0 km/h (2 Bft)
27.04.2018 19:54 10,3 C 80 % 1009,7 hPa 0,0 l/m 4,9 km/h (1 Bft) SW 227 0 min 14 W/m 7,0 C 10,3 C 6,4 km/h (2 Bft)
27.04.2018 19:57 10,3 C 81 % 1009,6 hPa 0,0 l/m 0,8 km/h (0 Bft) SW 227 0 min 11 W/m 7,2 C 10,3 C 3,2 km/h (1 Bft)
27.04.2018 20:00 10,3 C 82 % 1009,6 hPa 0,0 l/m 0,1 km/h (0 Bft) SW 227 0 min 12 W/m 7,4 C 10,3 C 1,6 km/h (1 Bft)
27.04.2018 20:03 10,2 C 84 % 1009,6 hPa 0,0 l/m 0,6 km/h (0 Bft) SW 227 0 min 14 W/m 7,6 C 10,2 C 3,2 km/h (1 Bft)
27.04.2018 20:06 10,2 C 85 % 1009,5 hPa 0,2 l/m 2,4 km/h (1 Bft) SW 227 0 min 14 W/m 7,8 C 10,2 C 4,8 km/h (1 Bft)
27.04.2018 20:09 10,1 C 86 % 1009,4 hPa 0,0 l/m 2,3 km/h (1 Bft) SW 227 0 min 14 W/m 7,9 C 10,1 C 3,2 km/h (1 Bft)
27.04.2018 20:12 10,0 C 86 % 1009,3 hPa 0,0 l/m 1,2 km/h (1 Bft) SW 227 0 min 14 W/m 7,8 C 10,0 C 1,6 km/h (1 Bft)
27.04.2018 20:15 9,8 C 87 % 1009,2 hPa 0,0 l/m 1,8 km/h (1 Bft) SW 227 0 min 14 W/m 7,7 C 9,8 C 3,2 km/h (1 Bft)
27.04.2018 20:18 9,8 C 87 % 1009,1 hPa 0,0 l/m 1,5 km/h (1 Bft) SW 227 0 min 14 W/m 7,7 C 9,8 C 3,2 km/h (1 Bft)
27.04.2018 20:21 9,7 C 87 % 1009,2 hPa 0,0 l/m 0,1 km/h (0 Bft) SW 227 0 min 14 W/m 7,6 C 9,7 C 1,6 km/h (1 Bft)
27.04.2018 20:24 9,6 C 88 % 1009,2 hPa 0,0 l/m 0,0 km/h (0 Bft) SW 227 0 min 12 W/m 7,7 C 9,6 C 0,0 km/h (0 Bft)
27.04.2018 20:27 9,5 C 88 % 1009,3 hPa 0,0 l/m 0,0 km/h (0 Bft) SW 227 0 min 11 W/m 7,6 C 9,5 C 0,0 km/h (0 Bft)
27.04.2018 20:30 9,4 C 88 % 1009,2 hPa 0,0 l/m 0,4 km/h (0 Bft) SW 227 0 min 9 W/m 7,5 C 9,4 C 1,6 km/h (1 Bft)
27.04.2018 20:33 9,4 C 89 % 1009,2 hPa 0,0 l/m 2,5 km/h (1 Bft) NW 315 0 min 7 W/m 7,7 C 9,4 C 4,8 km/h (1 Bft)
27.04.2018 20:36 9,6 C 89 % 1009,1 hPa 0,0 l/m 2,7 km/h (1 Bft) NW 315 0 min 5 W/m 7,9 C 9,6 C 4,8 km/h (1 Bft)
27.04.2018 20:39 9,6 C 89 % 1009,1 hPa 0,0 l/m 1,2 km/h (1 Bft) NW 315 0 min 0 W/m 7,9 C 9,6 C 4,8 km/h (1 Bft)
27.04.2018 20:42 9,6 C 89 % 1009,1 hPa 0,0 l/m 1,7 km/h (1 Bft) NW 315 0 min 0 W/m 7,9 C 9,6 C 3,2 km/h (1 Bft)
27.04.2018 20:45 9,7 C 89 % 1009,1 hPa 0,0 l/m 0,5 km/h (0 Bft) NW 315 0 min 0 W/m 8,0 C 9,7 C 3,2 km/h (1 Bft)
27.04.2018 20:48 9,7 C 89 % 1009,1 hPa 0,0 l/m 2,1 km/h (1 Bft) NW 315 0 min 0 W/m 8,0 C 9,7 C 3,2 km/h (1 Bft)
27.04.2018 20:51 9,6 C 89 % 1009,1 hPa 0,0 l/m 0,9 km/h (0 Bft) NW 315 0 min 0 W/m 7,9 C 9,6 C 3,2 km/h (1 Bft)
27.04.2018 20:54 9,6 C 89 % 1009,2 hPa 0,0 l/m 1,6 km/h (1 Bft) NW 315 0 min 0 W/m 7,9 C 9,6 C 4,8 km/h (1 Bft)
27.04.2018 20:57 9,6 C 89 % 1009,1 hPa 0,0 l/m 1,3 km/h (1 Bft) NW 315 0 min 0 W/m 7,9 C 9,6 C 3,2 km/h (1 Bft)
27.04.2018 21:00 9,6 C 90 % 1009,1 hPa 0,0 l/m 1,5 km/h (1 Bft) NW 315 0 min 0 W/m 8,0 C 9,6 C 3,2 km/h (1 Bft)
27.04.2018 21:03 9,6 C 90 % 1009,1 hPa 0,0 l/m 1,3 km/h (1 Bft) NW 315 0 min 0 W/m 8,0 C 9,6 C 3,2 km/h (1 Bft)
27.04.2018 21:06 9,5 C 90 % 1009,0 hPa 0,0 l/m 0,8 km/h (0 Bft) NW 315 0 min 0 W/m 7,9 C 9,5 C 3,2 km/h (1 Bft)
27.04.2018 21:09 9,5 C 90 % 1009,1 hPa 0,0 l/m 0,0 km/h (0 Bft) NW 315 0 min 0 W/m 7,9 C 9,5 C 0,0 km/h (0 Bft)
27.04.2018 21:12 9,5 C 90 % 1009,1 hPa 0,0 l/m 0,2 km/h (0 Bft) NW 315 0 min 0 W/m 7,9 C 9,5 C 3,2 km/h (1 Bft)
27.04.2018 21:15 9,6 C 90 % 1009,1 hPa 0,0 l/m 1,4 km/h (1 Bft) NW 315 0 min 0 W/m 8,0 C 9,6 C 4,8 km/h (1 Bft)
27.04.2018 21:18 9,6 C 90 % 1009,1 hPa 0,0 l/m 0,4 km/h (0 Bft) NW 315 0 min 0 W/m 8,0 C 9,6 C 1,6 km/h (1 Bft)
27.04.2018 21:21 9,5 C 90 % 1009,1 hPa 0,0 l/m 1,1 km/h (1 Bft) NW 315 0 min 0 W/m 7,9 C 9,5 C 4,8 km/h (1 Bft)
27.04.2018 21:24 9,5 C 90 % 1009,1 hPa 0,0 l/m 1,3 km/h (1 Bft) NW 315 0 min 0 W/m 7,9 C 9,5 C 4,8 km/h (1 Bft)
27.04.2018 21:27 9,5 C 90 % 1009,1 hPa 0,0 l/m 0,9 km/h (0 Bft) NW 315 0 min 0 W/m 7,9 C 9,5 C 3,2 km/h (1 Bft)
27.04.2018 21:30 9,5 C 90 % 1009,1 hPa 0,0 l/m 0,8 km/h (0 Bft) NW 315 0 min 0 W/m 7,9 C 9,5 C 1,6 km/h (1 Bft)
27.04.2018 21:33 9,4 C 90 % 1009,1 hPa 0,0 l/m 0,4 km/h (0 Bft) NW 315 0 min 0 W/m 7,8 C 9,4 C 1,6 km/h (1 Bft)
27.04.2018 21:36 9,4 C 90 % 1009,0 hPa 0,0 l/m 0,2 km/h (0 Bft) NW 315 0 min 0 W/m 7,8 C 9,4 C 1,6 km/h (1 Bft)
27.04.2018 21:39 9,4 C 90 % 1009,1 hPa 0,0 l/m 0,0 km/h (0 Bft) NW 315 0 min 0 W/m 7,8 C 9,4 C 0,0 km/h (0 Bft)
27.04.2018 21:42 9,3 C 90 % 1009,0 hPa 0,0 l/m 0,0 km/h (0 Bft) NW 315 0 min 0 W/m 7,7 C 9,3 C 0,0 km/h (0 Bft)
27.04.2018 21:45 9,2 C 91 % 1009,0 hPa 0,0 l/m 0,0 km/h (0 Bft) NW 315 0 min 0 W/m 7,8 C 9,2 C 0,0 km/h (0 Bft)
27.04.2018 21:48 9,1 C 91 % 1009,1 hPa 0,0 l/m 0,0 km/h (0 Bft) NW 315 0 min 0 W/m 7,7 C 9,1 C 0,0 km/h (0 Bft)
27.04.2018 21:51 9,1 C 90 % 1009,0 hPa 0,0 l/m 0,0 km/h (0 Bft) NW 315 0 min 0 W/m 7,5 C 9,1 C 0,0 km/h (0 Bft)
27.04.2018 21:54 8,9 C 91 % 1009,1 hPa 0,0 l/m 0,0 km/h (0 Bft) NW 315 0 min 0 W/m 7,5 C 8,9 C 0,0 km/h (0 Bft)
27.04.2018 21:57 8,9 C 91 % 1009,0 hPa 0,0 l/m 0,0 km/h (0 Bft) NW 315 0 min 0 W/m 7,5 C 8,9 C 0,0 km/h (0 Bft)
27.04.2018 22:00 8,9 C 91 % 1009,1 hPa 0,0 l/m 0,0 km/h (0 Bft) NW 315 0 min 0 W/m 7,5 C 8,9 C 0,0 km/h (0 Bft)
27.04.2018 22:03 8,9 C 91 % 1009,1 hPa 0,0 l/m 0,0 km/h (0 Bft) NW 315 0 min 0 W/m 7,5 C 8,9 C 0,0 km/h (0 Bft)
27.04.2018 22:06 8,9 C 91 % 1009,0 hPa 0,0 l/m 0,0 km/h (0 Bft) NW 315 0 min 0 W/m 7,5 C 8,9 C 0,0 km/h (0 Bft)
27.04.2018 22:09 8,9 C 91 % 1009,0 hPa 0,0 l/m 0,0 km/h (0 Bft) NW 315 0 min 0 W/m 7,5 C 8,9 C 0,0 km/h (0 Bft)
27.04.2018 22:12 9,0 C 92 % 1008,9 hPa 0,0 l/m 0,0 km/h (0 Bft) NW 315 0 min 0 W/m 7,8 C 9,0 C 0,0 km/h (0 Bft)
27.04.2018 22:15 9,1 C 92 % 1008,9 hPa 0,0 l/m 0,0 km/h (0 Bft) NW 315 0 min 0 W/m 7,9 C 9,1 C 0,0 km/h (0 Bft)
27.04.2018 22:18 9,0 C 92 % 1008,9 hPa 0,0 l/m 0,0 km/h (0 Bft) NW 315 0 min 0 W/m 7,8 C 9,0 C 0,0 km/h (0 Bft)
27.04.2018 22:21 8,9 C 92 % 1008,9 hPa 0,0 l/m 0,0 km/h (0 Bft) NW 315 0 min 0 W/m 7,7 C 8,9 C 0,0 km/h (0 Bft)
27.04.2018 22:24 8,9 C 92 % 1008,9 hPa 0,0 l/m 0,0 km/h (0 Bft) NW 315 0 min 0 W/m 7,7 C 8,9 C 0,0 km/h (0 Bft)
27.04.2018 22:27 9,0 C 92 % 1008,9 hPa 0,0 l/m 0,0 km/h (0 Bft) NW 315 0 min 0 W/m 7,8 C 9,0 C 0,0 km/h (0 Bft)
27.04.2018 22:30 9,1 C 92 % 1008,9 hPa 0,0 l/m 0,0 km/h (0 Bft) NW 315 0 min 0 W/m 7,9 C 9,1 C 0,0 km/h (0 Bft)
27.04.2018 22:33 9,1 C 92 % 1008,9 hPa 0,0 l/m 0,0 km/h (0 Bft) NW 315 0 min 0 W/m 7,9 C 9,1 C 0,0 km/h (0 Bft)
27.04.2018 22:36 9,2 C 92 % 1008,9 hPa 0,0 l/m 0,0 km/h (0 Bft) NW 315 0 min 0 W/m 8,0 C 9,2 C 0,0 km/h (0 Bft)
27.04.2018 22:39 9,2 C 93 % 1008,8 hPa 0,0 l/m 0,0 km/h (0 Bft) NW 315 0 min 0 W/m 8,1 C 9,2 C 0,0 km/h (0 Bft)
27.04.2018 22:42 9,2 C 93 % 1008,8 hPa 0,0 l/m 0,0 km/h (0 Bft) NW 315 0 min 0 W/m 8,1 C 9,2 C 0,0 km/h (0 Bft)
27.04.2018 22:45 9,2 C 93 % 1008,8 hPa 0,0 l/m 0,0 km/h (0 Bft) NW 315 0 min 0 W/m 8,1 C 9,2 C 0,0 km/h (0 Bft)
27.04.2018 22:48 9,2 C 93 % 1008,8 hPa 0,0 l/m 0,0 km/h (0 Bft) NW 315 0 min 0 W/m 8,1 C 9,2 C 0,0 km/h (0 Bft)
27.04.2018 22:51 9,2 C 93 % 1008,8 hPa 0,0 l/m 0,0 km/h (0 Bft) NW 315 0 min 0 W/m 8,1 C 9,2 C 0,0 km/h (0 Bft)
27.04.2018 22:54 9,2 C 93 % 1008,8 hPa 0,0 l/m 0,0 km/h (0 Bft) NW 315 0 min 0 W/m 8,1 C 9,2 C 0,0 km/h (0 Bft)
27.04.2018 22:57 9,2 C 93 % 1008,7 hPa 0,0 l/m 0,0 km/h (0 Bft) NW 315 0 min 0 W/m 8,1 C 9,2 C 0,0 km/h (0 Bft)
27.04.2018 23:00 9,3 C 93 % 1008,7 hPa 0,0 l/m 0,0 km/h (0 Bft) NW 315 0 min 0 W/m 8,2 C 9,3 C 0,0 km/h (0 Bft)
27.04.2018 23:03 9,3 C 93 % 1008,7 hPa 0,0 l/m 0,0 km/h (0 Bft) NW 315 0 min 0 W/m 8,2 C 9,3 C 0,0 km/h (0 Bft)
27.04.2018 23:06 9,3 C 93 % 1008,7 hPa 0,0 l/m 1,6 km/h (1 Bft) N-NO 16 0 min 0 W/m 8,2 C 9,3 C 6,4 km/h (2 Bft)
27.04.2018 23:09 9,4 C 93 % 1008,6 hPa 0,0 l/m 1,2 km/h (1 Bft) O-NO 74 0 min 0 W/m 8,3 C 9,4 C 4,8 km/h (1 Bft)
27.04.2018 23:12 9,4 C 93 % 1008,6 hPa 0,0 l/m 0,4 km/h (0 Bft) O-NO 59 0 min 0 W/m 8,3 C 9,4 C 3,2 km/h (1 Bft)
27.04.2018 23:15 9,4 C 93 % 1008,6 hPa 0,0 l/m 1,2 km/h (1 Bft) NO 53 0 min 0 W/m 8,3 C 9,4 C 9,7 km/h (2 Bft)
27.04.2018 23:18 9,4 C 93 % 1008,6 hPa 0,0 l/m 1,2 km/h (1 Bft) NO 53 0 min 0 W/m 8,3 C 9,4 C 3,2 km/h (1 Bft)
27.04.2018 23:21 9,5 C 93 % 1008,5 hPa 0,0 l/m 0,0 km/h (0 Bft) NO 53 0 min 0 W/m 8,4 C 9,5 C 0,0 km/h (0 Bft)
27.04.2018 23:24 9,6 C 93 % 1008,5 hPa 0,0 l/m 1,2 km/h (1 Bft) NO 52 0 min 0 W/m 8,5 C 9,6 C 4,8 km/h (1 Bft)
27.04.2018 23:27 9,5 C 93 % 1008,5 hPa 0,0 l/m 1,5 km/h (1 Bft) NO 53 0 min 0 W/m 8,4 C 9,5 C 6,4 km/h (2 Bft)
27.04.2018 23:30 9,6 C 93 % 1008,5 hPa 0,0 l/m 1,3 km/h (1 Bft) NO 52 0 min 0 W/m 8,5 C 9,6 C 6,4 km/h (2 Bft)
27.04.2018 23:33 9,5 C 93 % 1008,4 hPa 0,0 l/m 2,3 km/h (1 Bft) NO 52 0 min 0 W/m 8,4 C 9,5 C 6,4 km/h (2 Bft)
27.04.2018 23:36 9,5 C 93 % 1008,3 hPa 0,0 l/m 1,9 km/h (1 Bft) NO 52 0 min 0 W/m 8,4 C 9,5 C 4,8 km/h (1 Bft)
27.04.2018 23:39 9,5 C 93 % 1008,4 hPa 0,0 l/m 0,8 km/h (0 Bft) NO 52 0 min 0 W/m 8,4 C 9,5 C 1,6 km/h (1 Bft)
27.04.2018 23:42 9,4 C 93 % 1008,4 hPa 0,0 l/m 0,6 km/h (0 Bft) NO 52 0 min 0 W/m 8,3 C 9,4 C 1,6 km/h (1 Bft)
27.04.2018 23:45 9,4 C 93 % 1008,4 hPa 0,0 l/m 1,0 km/h (0 Bft) NO 52 0 min 0 W/m 8,3 C 9,4 C 3,2 km/h (1 Bft)
27.04.2018 23:48 9,3 C 93 % 1008,3 hPa 0,0 l/m 0,2 km/h (0 Bft) NO 52 0 min 0 W/m 8,2 C 9,3 C 1,6 km/h (1 Bft)
27.04.2018 23:51 9,3 C 93 % 1008,3 hPa 0,0 l/m 1,1 km/h (1 Bft) NO 52 0 min 0 W/m 8,2 C 9,3 C 3,2 km/h (1 Bft)
27.04.2018 23:54 9,3 C 93 % 1008,3 hPa 0,0 l/m 0,2 km/h (0 Bft) NO 52 0 min 0 W/m 8,2 C 9,3 C 1,6 km/h (1 Bft)
27.04.2018 23:57 9,3 C 93 % 1008,3 hPa 0,0 l/m 0,0 km/h (0 Bft) NO 52 0 min 0 W/m 8,2 C 9,3 C 0,0 km/h (0 Bft)
_ Min-Zeit 06:36 15:33 23:36 - 18:15 - - - - 15:33 07:27 18:15
Minimum _ 6,3 C 50 % 1008,3 hPa - 0,0 km/h (0 Bft) - - - - 5,0 C 3,3 C 0,0 km/h (0 Bft)
_ Max-Zeit 15:51 22:39 00:18 19:18 00:00 - - 09:03 12:57 10:57 15:51 15:24
Maximum _ 15,9 C 93 % 1012,8 hPa 0,2 l/m 18,0 km/h
SW (3 Bft)
- - 3 min 838 W/m 9,5 C 15,9 C 30,6 km/h
SW (5 Bft)
Durchschnitt _ 10,7 C 80 % 1010,9 hPa #0,6 l/m 7,6 km/h (2 Bft) SW - #5:30 h 270 W/m 7,3 C 9,0 C 13,0 km/h (3 Bft)
2018 Cux-Wetter.de -Die Nutzung der Wetterdaten nur mit ausdrcklicher Genehmigung